EDW38 LSZH-MROC

Flight info

Callsign EDW38
Flight time 11h 27m
Altitude 34000
Route VEBIT T10 TORPA DCT REKLA DCT RLP DCT ROTSI/N0485F360 DCT AMODO DCT COHPA UM729 RESMI DCT TABOV DCT PIGOP DCT DITAL UN491 EKRAS UN585 UPALO/N0490F370 UN585 FEJAC DCT TIQUH DCT REGHI/M084F360 DCT ETIKI DCT 47N015W 46N020W 43N030W/M084F380 37N040W 30N050W/M084F400 DCT FOORE DCT OPAUL/N0482F400 DCT KATOK DCT PALAS DCT TARBA/N0481F410 DCT KASOR/N0479F400 DCT SPP UP798 COLOR BARRA4C
Aircraft A359/H-SDE2E3GHIJ3J4J5LM1ORWXY/LB1D1

Departure

Time 2026-05-04 07:18
Airport Zürich Airport (LSZH)

Arrival

Time 2026-05-04 18:45
Airport Juan Santamaría International Airport (MROC)
Time Latitude Longitude Altitude Speed Heading
2026-05-04 06:15 47.46048 8.55528 1406 ft 0 kts
2026-05-04 07:04 47.46026 8.55524 1413 ft 4 kts
2026-05-04 07:04 47.45999 8.55522 1413 ft 4 kts 348°
2026-05-04 07:04 47.45977 8.55533 1411 ft 4 kts 326°
2026-05-04 07:04 47.45959 8.55561 1415 ft 4 kts 291°
2026-05-04 07:05 47.45954 8.55586 1409 ft 4 kts 276°
2026-05-04 07:05 47.45953 8.55626 1408 ft 4 kts 268°
2026-05-04 07:05 47.45954 8.55660 1408 ft 2 kts 276°
2026-05-04 07:05 47.45954 8.55661 1408 ft 1 kts 276°
2026-05-04 07:12 47.45963 8.55532 1413 ft 12 kts 276°
2026-05-04 07:12 47.45973 8.55397 1406 ft 14 kts 276°
2026-05-04 07:12 47.45984 8.55238 1405 ft 17 kts 276°
2026-05-04 07:12 47.45998 8.55048 1402 ft 20 kts 276°
2026-05-04 07:13 47.46084 8.54900 1405 ft 21 kts 328°
2026-05-04 07:13 47.46216 8.54806 1403 ft 22 kts 335°
2026-05-04 07:13 47.46359 8.54707 1403 ft 24 kts 335°
2026-05-04 07:14 47.46880 8.54364 1384 ft 23 kts 336°
2026-05-04 07:14 47.47022 8.54272 1400 ft 22 kts 336°
2026-05-04 07:15 47.47162 8.54173 1402 ft 22 kts 334°
2026-05-04 07:15 47.47299 8.54076 1403 ft 22 kts 334°
2026-05-04 07:15 47.47428 8.53986 1406 ft 16 kts 335°
2026-05-04 07:15 47.47463 8.53962 1409 ft 0 kts 335°
2026-05-04 07:16 47.47476 8.53953 1408 ft 7 kts 335°
2026-05-04 07:16 47.47550 8.53903 1405 ft 17 kts 335°
2026-05-04 07:16 47.47661 8.53828 1414 ft 17 kts 335°
2026-05-04 07:17 47.47698 8.53758 1412 ft 5 kts 270°
2026-05-04 07:17 47.47686 8.53700 1412 ft 9 kts 236°
2026-05-04 07:17 47.47611 8.53638 1412 ft 15 kts 202°
2026-05-04 07:17 47.47503 8.53640 1410 ft 21 kts 157°
2026-05-04 07:18 47.47213 8.53841 1403 ft 81 kts 155°
2026-05-04 07:18 47.46485 8.54344 1385 ft 149 kts 155°
2026-05-04 07:18 47.45369 8.55089 1530 ft 192 kts 155°
2026-05-04 07:18 47.44155 8.55924 2429 ft 192 kts 154°
2026-05-04 07:19 47.43046 8.56924 3437 ft 181 kts 134°
2026-05-04 07:19 47.42511 8.58536 3970 ft 178 kts 90°
2026-05-04 07:19 47.42939 8.60153 4432 ft 172 kts 40°
2026-05-04 07:19 47.44069 8.60606 4790 ft 182 kts 352°
2026-05-04 07:20 47.45279 8.59779 5089 ft 201 kts 329°
2026-05-04 07:20 47.46505 8.58647 5503 ft 215 kts 331°
2026-05-04 07:20 47.47681 8.57205 5959 ft 228 kts 306°
2026-05-04 07:20 47.48107 8.54921 6473 ft 240 kts 267°
2026-05-04 07:22 47.41273 8.41254 10906 ft 276 kts 239°
2026-05-04 07:22 47.40363 8.38651 11246 ft 295 kts 240°
2026-05-04 07:23 47.39405 8.35861 11600 ft 314 kts 240°
2026-05-04 07:23 47.38401 8.32910 11994 ft 330 kts 240°
2026-05-04 07:23 47.37321 8.29878 12664 ft 336 kts 239°
2026-05-04 07:23 47.36219 8.26820 13489 ft 338 kts 240°
2026-05-04 07:24 47.35121 8.23758 14218 ft 340 kts 240°
2026-05-04 07:24 47.34009 8.20639 14776 ft 346 kts 240°
2026-05-04 07:24 47.32882 8.17483 15439 ft 349 kts 240°
2026-05-04 07:24 47.31744 8.14301 16102 ft 353 kts 240°
2026-05-04 07:25 47.30598 8.11078 16729 ft 357 kts 240°
2026-05-04 07:26 47.28159 7.85449 20996 ft 392 kts 276°
2026-05-04 07:27 47.28603 7.81464 21592 ft 395 kts 276°
2026-05-04 07:27 47.29035 7.77463 22169 ft 398 kts 276°
2026-05-04 07:27 47.29452 7.73406 22775 ft 402 kts 275°
2026-05-04 07:27 47.29853 7.69321 23350 ft 405 kts 275°
2026-05-04 07:28 47.30261 7.65186 23840 ft 410 kts 277°
2026-05-04 07:28 47.30929 7.61089 24356 ft 413 kts 282°
2026-05-04 07:28 47.31735 7.57009 24887 ft 416 kts 283°
2026-05-04 07:28 47.32597 7.52912 25379 ft 419 kts 284°
2026-05-04 07:29 47.33488 7.48813 25890 ft 421 kts 284°
2026-05-04 07:29 47.34394 7.44690 26362 ft 425 kts 284°
2026-05-04 07:29 47.35305 7.40539 26854 ft 427 kts 284°
2026-05-04 07:29 47.36218 7.36356 27353 ft 430 kts 284°
2026-05-04 07:30 47.37131 7.32143 27823 ft 432 kts 284°
2026-05-04 07:30 47.38046 7.27905 28325 ft 435 kts 284°
2026-05-04 07:30 47.38963 7.23642 28803 ft 436 kts 284°
2026-05-04 07:30 47.39879 7.19369 29259 ft 439 kts 284°
2026-05-04 07:31 47.40725 7.15040 29687 ft 440 kts 279°
2026-05-04 07:31 47.41429 7.10626 30113 ft 442 kts 279°
2026-05-04 07:33 47.46034 6.79150 32680 ft 453 kts 278°
2026-05-04 07:33 47.46692 6.74595 32997 ft 454 kts 277°
2026-05-04 07:33 47.47341 6.70086 33307 ft 455 kts 277°
2026-05-04 07:33 47.47921 6.65430 33565 ft 455 kts 273°
2026-05-04 07:34 47.48314 6.60825 33756 ft 458 kts 272°
2026-05-04 07:34 47.48673 6.56148 33983 ft 460 kts 272°
2026-05-04 07:34 47.49013 6.51496 34029 ft 448 kts 271°
2026-05-04 07:34 47.49337 6.46994 34034 ft 432 kts 271°
2026-05-04 07:35 47.49947 6.38310 34043 ft 423 kts 271°
2026-05-04 07:35 47.50541 6.29657 34041 ft 423 kts 271°
2026-05-04 07:36 47.51135 6.21005 34194 ft 426 kts 271°
2026-05-04 07:38 47.53615 5.89442 35037 ft 461 kts 281°
2026-05-04 07:38 47.54757 5.84950 35206 ft 470 kts 291°
2026-05-04 07:38 47.56438 5.80759 35400 ft 479 kts 301°
2026-05-04 07:38 47.58554 5.76911 35636 ft 483 kts 306°
2026-05-04 07:39 47.60788 5.73199 35903 ft 484 kts 307°
2026-05-04 07:39 47.63076 5.69537 36170 ft 484 kts 308°
2026-05-04 07:39 47.65376 5.65901 36421 ft 483 kts 308°
2026-05-04 07:39 47.67670 5.62266 36652 ft 483 kts 308°
2026-05-04 07:40 47.69964 5.58607 36887 ft 483 kts 308°
2026-05-04 07:40 47.72239 5.54948 37088 ft 483 kts 308°
2026-05-04 07:40 47.74516 5.51265 37329 ft 483 kts 308°
2026-05-04 07:40 47.76778 5.47592 37571 ft 482 kts 308°
2026-05-04 07:41 47.79039 5.43909 37800 ft 481 kts 307°
2026-05-04 07:41 47.81296 5.40226 38002 ft 482 kts 308°
2026-05-04 07:41 47.85823 5.32821 38028 ft 483 kts 307°
2026-05-04 07:42 47.90343 5.25416 38030 ft 483 kts 307°
2026-05-04 07:42 47.94868 5.17989 38012 ft 483 kts 307°
2026-05-04 07:43 47.99380 5.10552 38018 ft 483 kts 307°
2026-05-04 07:43 48.03859 5.03148 38008 ft 484 kts 307°
2026-05-04 07:44 48.08369 4.95672 38007 ft 484 kts 307°
2026-05-04 07:44 48.12874 4.88185 38012 ft 484 kts 307°
2026-05-04 07:45 48.17370 4.80691 38003 ft 484 kts 307°
2026-05-04 07:45 48.21868 4.73175 38001 ft 484 kts 307°
2026-05-04 07:46 48.25361 4.66600 38001 ft 478 kts 297°
2026-05-04 07:46 48.28026 4.57635 37995 ft 466 kts 279°
2026-05-04 07:47 48.29184 4.48120 37993 ft 462 kts 274°
2026-05-04 07:49 48.32575 4.09750 38020 ft 466 kts 273°
2026-05-04 07:49 48.33427 4.00155 38020 ft 466 kts 273°
2026-05-04 07:50 48.34275 3.90498 38020 ft 466 kts 272°
2026-05-04 07:50 48.35113 3.80832 38017 ft 466 kts 272°
2026-05-04 07:51 48.35944 3.71157 37982 ft 466 kts 272°
2026-05-04 07:51 48.36765 3.61502 37983 ft 466 kts 272°
2026-05-04 07:52 48.37579 3.51832 37983 ft 466 kts 272°
2026-05-04 07:52 48.38383 3.42161 37990 ft 466 kts 273°
2026-05-04 07:54 48.41533 3.03336 37974 ft 468 kts 273°
2026-05-04 07:55 48.42814 2.93689 37977 ft 472 kts 281°
2026-05-04 07:55 48.44589 2.84147 37973 ft 474 kts 282°
2026-05-04 07:56 48.46435 2.74614 37972 ft 474 kts 282°
2026-05-04 07:56 48.48263 2.65090 37975 ft 474 kts 282°
2026-05-04 07:57 48.50075 2.55539 37976 ft 474 kts 282°
2026-05-04 07:57 48.51878 2.45960 37986 ft 476 kts 282°
2026-05-04 07:58 48.53680 2.36346 37984 ft 476 kts 282°
2026-05-04 07:58 48.55474 2.26729 37983 ft 476 kts 282°
2026-05-04 07:59 48.57254 2.17115 37985 ft 475 kts 281°
2026-05-04 07:59 48.58707 2.07379 37984 ft 476 kts 277°
2026-05-04 08:00 48.59977 1.97567 37991 ft 476 kts 277°
2026-05-04 08:02 48.65328 1.58290 37981 ft 478 kts 278°
2026-05-04 08:02 48.66656 1.48438 37974 ft 479 kts 278°
2026-05-04 08:03 48.67973 1.38565 37971 ft 479 kts 278°
2026-05-04 08:03 48.69282 1.28747 37993 ft 479 kts 278°
2026-05-04 08:04 48.70583 1.18898 37974 ft 477 kts 278°
2026-05-04 08:04 48.71872 1.09046 37973 ft 477 kts 278°
2026-05-04 08:05 48.73153 0.99201 37976 ft 477 kts 278°
2026-05-04 08:05 48.74427 0.89346 37977 ft 477 kts 278°
2026-05-04 08:06 48.75703 0.79484 37984 ft 477 kts 278°
2026-05-04 08:06 48.76965 0.69628 37975 ft 477 kts 277°
2026-05-04 08:08 48.80544 0.29912 37992 ft 477 kts 272°
2026-05-04 08:11 48.83249 -0.15254 38008 ft 480 kts 272°
2026-05-04 08:11 48.84122 -0.30392 38004 ft 480 kts 271°
2026-05-04 08:12 48.84663 -0.40504 38002 ft 480 kts 271°
2026-05-04 08:12 48.85184 -0.50538 37983 ft 480 kts 271°
2026-05-04 08:13 48.85708 -0.60708 38001 ft 480 kts 271°
2026-05-04 08:13 48.86219 -0.70741 38007 ft 480 kts 271°
2026-05-04 08:14 48.86727 -0.80855 37997 ft 480 kts 271°
2026-05-04 08:16 48.88677 -1.21527 37996 ft 484 kts 271°
2026-05-04 08:16 48.89144 -1.31737 38006 ft 484 kts 271°
2026-05-04 08:17 48.89602 -1.41963 37997 ft 486 kts 271°
2026-05-04 08:17 48.90054 -1.52214 37994 ft 486 kts 271°
2026-05-04 08:19 48.89121 -1.87727 37994 ft 481 kts 255°
2026-05-04 08:19 48.88316 -1.92654 37994 ft 481 kts 254°
2026-05-04 08:20 48.86655 -2.02484 37998 ft 481 kts 254°
2026-05-04 08:20 48.85008 -2.12323 37998 ft 481 kts 254°
2026-05-04 08:21 48.83380 -2.22166 37997 ft 481 kts 254°
2026-05-04 08:21 48.81759 -2.31961 37998 ft 482 kts 254°
2026-05-04 08:22 48.80120 -2.41816 37995 ft 482 kts 254°
2026-05-04 08:24 48.75473 -2.81971 37994 ft 487 kts 261°
2026-05-04 08:24 48.74623 -2.92168 37996 ft 487 kts 261°
2026-05-04 08:25 48.73757 -3.02342 38001 ft 488 kts 261°
2026-05-04 08:25 48.72874 -3.12540 37997 ft 489 kts 261°
2026-05-04 08:27 48.69236 -3.53470 37994 ft 491 kts 261°
2026-05-04 08:28 48.68302 -3.63719 37993 ft 492 kts 261°
2026-05-04 08:28 48.67362 -3.73921 37992 ft 493 kts 261°
2026-05-04 08:29 48.66408 -3.84180 37993 ft 493 kts 261°
2026-05-04 08:31 48.62499 -4.25199 37993 ft 493 kts 261°
2026-05-04 08:33 48.58619 -4.64421 37986 ft 493 kts 261°
2026-05-04 08:35 48.54425 -5.05316 37988 ft 493 kts 260°
2026-05-04 08:35 48.53355 -5.15522 37985 ft 492 kts 260°
2026-05-04 08:37 48.49540 -5.51187 37987 ft 492 kts 260°
2026-05-04 08:38 48.48428 -5.61382 37987 ft 492 kts 260°
2026-05-04 08:38 48.47307 -5.71570 37988 ft 494 kts 260°
2026-05-04 08:40 48.42729 -6.12327 37985 ft 495 kts 260°
2026-05-04 08:41 48.41368 -6.22478 37988 ft 495 kts 252°
2026-05-04 08:41 48.39281 -6.32361 37981 ft 495 kts 251°
2026-05-04 08:42 48.37064 -6.42162 37985 ft 495 kts 250°
2026-05-04 08:42 48.34823 -6.51949 37987 ft 496 kts 251°
2026-05-04 08:43 48.32583 -6.61747 37987 ft 496 kts 251°
2026-05-04 08:43 48.30339 -6.71555 37987 ft 496 kts 251°
2026-05-04 08:44 48.28089 -6.81348 37989 ft 496 kts 250°
2026-05-04 08:46 48.18984 -7.20531 37985 ft 498 kts 250°
2026-05-04 08:46 48.16684 -7.30311 37983 ft 498 kts 250°
2026-05-04 08:47 48.14391 -7.40024 37982 ft 499 kts 250°
2026-05-04 08:47 48.12070 -7.49810 37982 ft 499 kts 250°
2026-05-04 08:48 48.09741 -7.59584 37982 ft 499 kts 250°
2026-05-04 08:48 48.07404 -7.69351 37984 ft 499 kts 250°
2026-05-04 08:49 48.05054 -7.79130 37985 ft 500 kts 250°
2026-05-04 08:50 47.99993 -8.09111 37983 ft 500 kts 269°
2026-05-04 08:50 47.99964 -8.14305 37985 ft 501 kts 270°
2026-05-04 08:51 48.00009 -8.24694 37984 ft 501 kts 271°
2026-05-04 08:51 48.00056 -8.35105 37983 ft 501 kts 270°
2026-05-04 08:52 48.00068 -8.45516 37987 ft 501 kts 270°
2026-05-04 08:52 48.00056 -8.55917 37985 ft 501 kts 270°
2026-05-04 08:54 47.97118 -8.97246 37993 ft 503 kts 259°
2026-05-04 08:55 47.95747 -9.07408 37993 ft 503 kts 259°
2026-05-04 08:55 47.94372 -9.17625 37991 ft 503 kts 259°
2026-05-04 09:01 47.79457 -10.24799 37999 ft 504 kts 259°
2026-05-04 09:01 47.77984 -10.34979 38009 ft 504 kts 259°
2026-05-04 09:02 47.76499 -10.45170 38010 ft 504 kts 259°
2026-05-04 09:02 47.75007 -10.55344 38009 ft 504 kts 259°
2026-05-04 09:03 47.73506 -10.65515 38015 ft 504 kts 259°
2026-05-04 09:03 47.72004 -10.75623 38015 ft 504 kts 259°
2026-05-04 09:04 47.70475 -10.85847 38017 ft 503 kts 259°
2026-05-04 09:04 47.68958 -10.95920 38018 ft 503 kts 259°
2026-05-04 09:05 47.67412 -11.06126 38021 ft 504 kts 259°
2026-05-04 09:05 47.65877 -11.16192 38020 ft 504 kts 259°
2026-05-04 09:06 47.64323 -11.26325 38020 ft 504 kts 259°
2026-05-04 09:08 47.57996 -11.66913 38039 ft 507 kts 259°
2026-05-04 09:08 47.56356 -11.77264 38040 ft 507 kts 259°
2026-05-04 09:09 47.54739 -11.87418 38044 ft 507 kts 259°
2026-05-04 09:09 47.53111 -11.97581 38052 ft 507 kts 259°
2026-05-04 09:10 47.51471 -12.07748 38054 ft 508 kts 258°
2026-05-04 09:10 47.49825 -12.17900 38062 ft 508 kts 258°
2026-05-04 09:11 47.48168 -12.28040 38069 ft 506 kts 259°
2026-05-04 09:11 47.46518 -12.38082 38070 ft 506 kts 258°
2026-05-04 09:12 47.44847 -12.48200 38078 ft 507 kts 259°
2026-05-04 09:14 47.38081 -12.88556 38086 ft 506 kts 258°
2026-05-04 09:14 47.36647 -12.96992 38097 ft 506 kts 258°
2026-05-04 09:15 47.34939 -13.06982 38102 ft 506 kts 258°
2026-05-04 09:15 47.33208 -13.17042 38103 ft 506 kts 258°
2026-05-04 09:17 47.25318 -13.62222 38128 ft 506 kts 258°
2026-05-04 09:18 47.23539 -13.72248 38130 ft 506 kts 258°
2026-05-04 09:18 47.21754 -13.82256 38132 ft 506 kts 258°
2026-05-04 09:19 47.19959 -13.92260 38137 ft 506 kts 258°
2026-05-04 09:19 47.18157 -14.02255 38143 ft 506 kts 258°
2026-05-04 09:20 47.16346 -14.12238 38146 ft 506 kts 258°
2026-05-04 09:20 47.14528 -14.22210 38155 ft 505 kts 258°
2026-05-04 09:21 47.12702 -14.32166 38162 ft 504 kts 258°
2026-05-04 09:21 47.10869 -14.42109 38164 ft 504 kts 258°
2026-05-04 09:22 47.09029 -14.52040 38166 ft 504 kts 258°
2026-05-04 09:22 47.07177 -14.61978 38169 ft 504 kts 258°
2026-05-04 09:23 47.05323 -14.71879 38170 ft 503 kts 258°
2026-05-04 09:23 47.03474 -14.81698 38176 ft 503 kts 257°
2026-05-04 09:25 46.96237 -15.21264 38188 ft 502 kts 259°
2026-05-04 09:26 46.94505 -15.31157 38165 ft 502 kts 258°
2026-05-04 09:26 46.92746 -15.41044 38195 ft 502 kts 258°
2026-05-04 09:27 46.90975 -15.50914 38195 ft 502 kts 258°
2026-05-04 09:27 46.89195 -15.60778 38198 ft 502 kts 258°
2026-05-04 09:28 46.87407 -15.70634 38175 ft 501 kts 258°
2026-05-04 09:28 46.85613 -15.80477 38199 ft 501 kts 258°
2026-05-04 09:29 46.83809 -15.90321 38199 ft 501 kts 258°
2026-05-04 09:29 46.81999 -16.00144 38210 ft 501 kts 258°
2026-05-04 09:30 46.80177 -16.09977 38213 ft 501 kts 258°
2026-05-04 09:30 46.78353 -16.19773 38213 ft 499 kts 258°
2026-05-04 09:31 46.76525 -16.29535 38217 ft 499 kts 258°
2026-05-04 09:31 46.74688 -16.39304 38223 ft 499 kts 258°
2026-05-04 09:32 46.72842 -16.49062 38214 ft 499 kts 258°
2026-05-04 09:34 46.65406 -16.87873 38234 ft 497 kts 257°
2026-05-04 09:34 46.63541 -16.97487 38240 ft 497 kts 257°
2026-05-04 09:35 46.61652 -17.07170 38241 ft 497 kts 257°
2026-05-04 09:35 46.59758 -17.16833 38242 ft 497 kts 257°
2026-05-04 09:37 46.52143 -17.55210 38257 ft 493 kts 257°
2026-05-04 09:38 46.50225 -17.64758 38255 ft 491 kts 257°
2026-05-04 09:38 46.48310 -17.74240 38261 ft 489 kts 257°
2026-05-04 09:39 46.46394 -17.83693 38265 ft 489 kts 257°
2026-05-04 09:39 46.44468 -17.93148 38265 ft 489 kts 257°
2026-05-04 09:40 46.42534 -18.02588 38273 ft 487 kts 257°
2026-05-04 09:40 46.40602 -18.11978 38274 ft 486 kts 257°
2026-05-04 09:42 46.32809 -18.49431 38282 ft 485 kts 257°
2026-05-04 09:43 46.30843 -18.58769 38289 ft 485 kts 257°
2026-05-04 09:43 46.28870 -18.68095 38289 ft 485 kts 256°
2026-05-04 09:44 46.26888 -18.77425 38290 ft 485 kts 256°
2026-05-04 09:46 46.18900 -19.14595 39228 ft 484 kts 256°
2026-05-04 09:46 46.17894 -19.19232 39397 ft 484 kts 256°
2026-05-04 09:46 46.16887 -19.23862 39527 ft 484 kts 256°
2026-05-04 09:47 46.15876 -19.28497 39671 ft 484 kts 256°
2026-05-04 09:47 46.14864 -19.33131 39814 ft 484 kts 256°
2026-05-04 09:49 46.07732 -19.65484 40306 ft 484 kts 255°
2026-05-04 09:49 46.06705 -19.70102 40306 ft 484 kts 255°
2026-05-04 09:51 45.99478 -20.02306 40315 ft 483 kts 255°
2026-05-04 09:51 45.97280 -20.11439 40315 ft 483 kts 253°
2026-05-04 09:52 45.95019 -20.20539 40316 ft 483 kts 253°
2026-05-04 09:52 45.92772 -20.29613 40321 ft 482 kts 253°
2026-05-04 09:53 45.90534 -20.38683 40315 ft 482 kts 253°
2026-05-04 09:53 45.88297 -20.47736 40315 ft 482 kts 253°
2026-05-04 09:54 45.86065 -20.56733 40318 ft 482 kts 253°
2026-05-04 09:54 45.83813 -20.65770 40322 ft 482 kts 253°
2026-05-04 09:55 45.81551 -20.74810 40324 ft 482 kts 253°
2026-05-04 09:55 45.79282 -20.83844 40325 ft 482 kts 253°
2026-05-04 09:56 45.77007 -20.92865 40325 ft 481 kts 253°
2026-05-04 09:56 45.74727 -21.01869 40317 ft 481 kts 253°
2026-05-04 09:57 45.72441 -21.10859 40321 ft 481 kts 253°
2026-05-04 09:57 45.70147 -21.19850 40326 ft 481 kts 253°
2026-05-04 09:58 45.67849 -21.28822 40326 ft 480 kts 252°
2026-05-04 09:58 45.65547 -21.37769 40324 ft 479 kts 252°
2026-05-04 10:00 45.56284 -21.73448 40331 ft 478 kts 252°
2026-05-04 10:04 45.40258 -22.33918 40332 ft 477 kts 251°
2026-05-04 10:04 45.37889 -22.42728 40334 ft 477 kts 251°
2026-05-04 10:05 45.35515 -22.51524 40336 ft 477 kts 251°
2026-05-04 10:05 45.33146 -22.60267 40336 ft 477 kts 251°
2026-05-04 10:06 45.30758 -22.69050 40342 ft 476 kts 251°
2026-05-04 10:06 45.28367 -22.77810 40346 ft 476 kts 251°
2026-05-04 10:08 45.19951 -23.08400 40339 ft 474 kts 251°
2026-05-04 10:08 45.17537 -23.17104 40351 ft 474 kts 251°
2026-05-04 10:09 45.15116 -23.25800 40350 ft 474 kts 251°
2026-05-04 10:09 45.12693 -23.34474 40347 ft 474 kts 251°
2026-05-04 10:10 45.10266 -23.43131 40348 ft 473 kts 251°
2026-05-04 10:10 45.07831 -23.51786 40345 ft 473 kts 251°
2026-05-04 10:11 45.05390 -23.60429 40351 ft 473 kts 251°
2026-05-04 10:11 45.02946 -23.69055 40341 ft 472 kts 251°
2026-05-04 10:12 45.00495 -23.77676 40347 ft 472 kts 251°
2026-05-04 10:12 44.98040 -23.86281 40345 ft 472 kts 250°
2026-05-04 10:13 44.95596 -23.94817 40354 ft 472 kts 250°
2026-05-04 10:13 44.93129 -24.03403 40357 ft 472 kts 250°
2026-05-04 10:14 44.90655 -24.11983 40355 ft 472 kts 250°
2026-05-04 10:16 44.80693 -24.46238 40363 ft 472 kts 250°
2026-05-04 10:16 44.78189 -24.54775 40363 ft 472 kts 250°
2026-05-04 10:17 44.75676 -24.63317 40354 ft 472 kts 250°
2026-05-04 10:19 44.65572 -24.97358 40373 ft 472 kts 250°
2026-05-04 10:19 44.63029 -25.05854 40374 ft 472 kts 250°
2026-05-04 10:20 44.60481 -25.14339 40377 ft 472 kts 250°
2026-05-04 10:20 44.57929 -25.22806 40376 ft 472 kts 249°
2026-05-04 10:21 44.55368 -25.31277 40374 ft 472 kts 249°
2026-05-04 10:21 44.52802 -25.39737 40379 ft 471 kts 249°
2026-05-04 10:22 44.48943 -25.52405 40384 ft 471 kts 249°
2026-05-04 10:23 44.46361 -25.60849 40379 ft 471 kts 249°
2026-05-04 10:25 44.35986 -25.94494 40388 ft 471 kts 249°
2026-05-04 10:25 44.33378 -26.02884 40390 ft 471 kts 248°
2026-05-04 10:26 44.30765 -26.11260 40395 ft 471 kts 248°
2026-05-04 10:26 44.28161 -26.19582 40394 ft 470 kts 248°
2026-05-04 10:27 44.25537 -26.27943 40398 ft 470 kts 248°
2026-05-04 10:27 44.22906 -26.36298 40400 ft 470 kts 248°
2026-05-04 10:28 44.20272 -26.44634 40401 ft 470 kts 248°
2026-05-04 10:28 44.17628 -26.52976 40401 ft 470 kts 248°
2026-05-04 10:29 44.14980 -26.61306 40403 ft 471 kts 248°
2026-05-04 10:29 44.12322 -26.69639 40404 ft 471 kts 248°
2026-05-04 10:30 44.09655 -26.77974 40406 ft 471 kts 248°
2026-05-04 10:30 44.06979 -26.86310 40404 ft 471 kts 248°
2026-05-04 10:31 44.04300 -26.94630 40406 ft 472 kts 247°
2026-05-04 10:32 43.94871 -27.23706 40408 ft 472 kts 247°
2026-05-04 10:33 43.92161 -27.32003 40411 ft 472 kts 247°
2026-05-04 10:33 43.89447 -27.40288 40406 ft 472 kts 247°
2026-05-04 10:34 43.86727 -27.48564 40404 ft 472 kts 247°
2026-05-04 10:34 43.83999 -27.56838 40411 ft 473 kts 247°
2026-05-04 10:35 43.81279 -27.65064 40410 ft 473 kts 247°
2026-05-04 10:35 43.78519 -27.73384 40410 ft 473 kts 247°
2026-05-04 10:36 43.75789 -27.81589 40409 ft 473 kts 246°
2026-05-04 10:36 43.73030 -27.89855 40410 ft 474 kts 246°
2026-05-04 10:37 43.70264 -27.98119 40415 ft 474 kts 246°
2026-05-04 10:37 43.67490 -28.06377 40415 ft 474 kts 246°
2026-05-04 10:39 43.57729 -28.35245 40417 ft 474 kts 246°
2026-05-04 10:40 43.54923 -28.43487 40418 ft 475 kts 246°
2026-05-04 10:40 43.52112 -28.51718 40414 ft 475 kts 246°
2026-05-04 10:41 43.49292 -28.59952 40413 ft 475 kts 246°
2026-05-04 10:41 43.46467 -28.68173 40418 ft 475 kts 246°
2026-05-04 10:42 43.43639 -28.76381 40426 ft 475 kts 246°
2026-05-04 10:42 43.40798 -28.84601 40413 ft 476 kts 246°
2026-05-04 10:43 43.37949 -28.92818 40423 ft 476 kts 246°
2026-05-04 10:45 43.26512 -29.25560 40422 ft 476 kts 246°
2026-05-04 10:45 43.23618 -29.33782 40422 ft 476 kts 246°
2026-05-04 10:46 43.20751 -29.41907 40425 ft 476 kts 245°
2026-05-04 10:46 43.17858 -29.50079 40425 ft 476 kts 245°
2026-05-04 10:47 43.14962 -29.58237 40425 ft 476 kts 245°
2026-05-04 10:47 43.12056 -29.66396 40425 ft 477 kts 246°
2026-05-04 10:49 43.00827 -29.97678 40420 ft 478 kts 244°
2026-05-04 10:50 42.97276 -30.05387 40425 ft 480 kts 238°
2026-05-04 10:52 42.82002 -30.35238 40425 ft 480 kts 237°
2026-05-04 10:52 42.78167 -30.42696 40420 ft 481 kts 237°
2026-05-04 10:54 42.62761 -30.72469 40422 ft 481 kts 237°
2026-05-04 10:56 42.47276 -31.02095 40417 ft 482 kts 237°
2026-05-04 10:57 42.43415 -31.09437 40417 ft 482 kts 237°
2026-05-04 10:57 42.39525 -31.16815 40405 ft 481 kts 237°
2026-05-04 10:58 42.35631 -31.24183 40414 ft 482 kts 237°
2026-05-04 10:58 42.31727 -31.31551 40414 ft 482 kts 237°
2026-05-04 10:59 42.27825 -31.38899 40414 ft 482 kts 237°
2026-05-04 10:59 42.23912 -31.46249 40410 ft 482 kts 237°
2026-05-04 11:00 42.19995 -31.53588 40411 ft 482 kts 237°
2026-05-04 11:02 42.04277 -31.82863 40419 ft 482 kts 237°
2026-05-04 11:05 41.74576 -32.37415 40400 ft 484 kts 237°
2026-05-04 11:06 41.70579 -32.44683 40398 ft 485 kts 237°
2026-05-04 11:06 41.66571 -32.51953 40399 ft 485 kts 237°
2026-05-04 11:10 41.38370 -33.02620 40389 ft 487 kts 237°
2026-05-04 11:12 41.22061 -33.31542 40366 ft 488 kts 237°
2026-05-04 11:12 41.17970 -33.38755 40383 ft 489 kts 237°
2026-05-04 11:13 41.13896 -33.45921 40379 ft 490 kts 237°
2026-05-04 11:13 41.09787 -33.53132 40375 ft 490 kts 237°
2026-05-04 11:14 41.09092 -33.54350 40362 ft 490 kts 237°
2026-05-04 11:16 40.89144 -33.89100 40370 ft 491 kts 237°
2026-05-04 11:16 40.85001 -33.96269 40365 ft 491 kts 237°
2026-05-04 11:17 40.80850 -34.03435 40359 ft 491 kts 238°
2026-05-04 11:19 40.64224 -34.31972 40351 ft 491 kts 238°
2026-05-04 11:19 40.60048 -34.39099 40347 ft 492 kts 238°
2026-05-04 11:20 40.55870 -34.46213 40354 ft 492 kts 238°
2026-05-04 11:20 40.51680 -34.53330 40355 ft 492 kts 238°
2026-05-04 11:22 40.34890 -34.81689 40350 ft 493 kts 238°
2026-05-04 11:23 40.30671 -34.88776 40350 ft 493 kts 238°
2026-05-04 11:25 40.15873 -35.13502 40346 ft 494 kts 238°
2026-05-04 11:25 40.11628 -35.20560 40339 ft 494 kts 238°
2026-05-04 11:27 39.92424 -35.52288 40334 ft 496 kts 238°
2026-05-04 11:28 39.88129 -35.59341 40336 ft 497 kts 238°
2026-05-04 11:28 39.83858 -35.66338 40317 ft 497 kts 238°
2026-05-04 11:29 39.79558 -35.73366 40329 ft 497 kts 238°
2026-05-04 11:29 39.75244 -35.80404 40331 ft 498 kts 238°
2026-05-04 11:33 39.44833 -36.29562 40311 ft 500 kts 238°
2026-05-04 11:33 39.40465 -36.36560 40318 ft 501 kts 238°
2026-05-04 11:34 39.36082 -36.43567 40308 ft 501 kts 238°
2026-05-04 11:34 39.31699 -36.50559 40305 ft 501 kts 238°
2026-05-04 11:35 39.27311 -36.57544 40305 ft 502 kts 238°
2026-05-04 11:35 39.22908 -36.64537 40296 ft 502 kts 238°
2026-05-04 11:36 39.18499 -36.71523 40299 ft 502 kts 238°
2026-05-04 11:36 39.14088 -36.78497 40297 ft 502 kts 237°
2026-05-04 11:37 39.09694 -36.85430 40299 ft 502 kts 237°
2026-05-04 11:37 39.05270 -36.92393 40299 ft 503 kts 237°
2026-05-04 11:38 39.00842 -36.99348 40298 ft 503 kts 237°
2026-05-04 11:38 38.96409 -37.06296 40311 ft 503 kts 237°
2026-05-04 11:39 38.91972 -37.13236 40283 ft 503 kts 237°
2026-05-04 11:41 38.77153 -37.36302 40289 ft 502 kts 237°
2026-05-04 11:41 38.72703 -37.43197 40286 ft 502 kts 237°
2026-05-04 11:42 38.68246 -37.50088 40266 ft 502 kts 237°
2026-05-04 11:42 38.63793 -37.56958 40279 ft 501 kts 237°
2026-05-04 11:43 38.59344 -37.63805 40286 ft 501 kts 237°
2026-05-04 11:43 38.54888 -37.70650 40264 ft 500 kts 237°
2026-05-04 11:44 38.50447 -37.77456 40287 ft 498 kts 236°
2026-05-04 11:44 38.46001 -37.84260 40279 ft 500 kts 236°
2026-05-04 11:45 38.41544 -37.91063 40271 ft 499 kts 236°
2026-05-04 11:45 38.37095 -37.97837 40276 ft 498 kts 236°
2026-05-04 11:46 38.32642 -38.04605 40272 ft 498 kts 236°
2026-05-04 11:46 38.28196 -38.11348 40276 ft 496 kts 236°
2026-05-04 11:47 38.23760 -38.18062 40269 ft 495 kts 236°
2026-05-04 11:47 38.19349 -38.24726 40246 ft 495 kts 237°
2026-05-04 11:48 38.14915 -38.31409 40265 ft 494 kts 236°
2026-05-04 11:48 38.10484 -38.38074 40264 ft 494 kts 236°
2026-05-04 11:49 38.06052 -38.44727 40248 ft 493 kts 236°
2026-05-04 11:49 38.01615 -38.51374 40263 ft 493 kts 236°
2026-05-04 11:50 37.97181 -38.58003 40259 ft 493 kts 236°
2026-05-04 11:50 37.92743 -38.64625 40255 ft 493 kts 236°
2026-05-04 11:51 37.88299 -38.71241 40253 ft 493 kts 236°
2026-05-04 11:51 37.83855 -38.77843 40254 ft 492 kts 236°
2026-05-04 11:52 37.79414 -38.84429 40257 ft 492 kts 236°
2026-05-04 11:52 37.74967 -38.91009 40257 ft 492 kts 236°
2026-05-04 11:53 37.70516 -38.97582 40251 ft 492 kts 236°
2026-05-04 11:53 37.66063 -39.04146 40251 ft 492 kts 236°
2026-05-04 11:55 37.48266 -39.30242 40246 ft 489 kts 236°
2026-05-04 11:56 37.43822 -39.36728 40234 ft 489 kts 236°
2026-05-04 11:56 37.39381 -39.43194 40243 ft 488 kts 236°
2026-05-04 11:57 37.34940 -39.49649 40235 ft 488 kts 236°
2026-05-04 11:57 37.30503 -39.56087 40236 ft 488 kts 236°
2026-05-04 11:58 37.26060 -39.62517 40237 ft 486 kts 236°
2026-05-04 11:58 37.21633 -39.68912 40235 ft 485 kts 236°
2026-05-04 11:59 37.17205 -39.75299 40232 ft 485 kts 236°
2026-05-04 11:59 37.12779 -39.81670 40224 ft 485 kts 236°
2026-05-04 12:00 37.08359 -39.88017 40230 ft 482 kts 236°
2026-05-04 12:00 37.03952 -39.94335 40231 ft 481 kts 236°
2026-05-04 12:01 36.99572 -40.00605 40227 ft 481 kts 236°
2026-05-04 12:02 36.85666 -40.23604 40223 ft 473 kts 240°
2026-05-04 12:03 36.81686 -40.30137 40223 ft 472 kts 239°
2026-05-04 12:03 36.77708 -40.36634 40224 ft 471 kts 239°
2026-05-04 12:04 36.73735 -40.43118 40219 ft 471 kts 239°
2026-05-04 12:04 36.69758 -40.49600 40212 ft 470 kts 239°
2026-05-04 12:05 36.65788 -40.56056 40221 ft 469 kts 239°
2026-05-04 12:05 36.61827 -40.62487 40216 ft 468 kts 239°
2026-05-04 12:06 36.57864 -40.68911 40215 ft 468 kts 239°
2026-05-04 12:06 36.53895 -40.75332 40213 ft 467 kts 239°
2026-05-04 12:07 36.49942 -40.81711 40212 ft 466 kts 239°
2026-05-04 12:07 36.45985 -40.88089 40212 ft 466 kts 239°
2026-05-04 12:08 36.42023 -40.94464 40206 ft 465 kts 239°
2026-05-04 12:08 36.38072 -41.00804 40209 ft 464 kts 239°
2026-05-04 12:09 36.34121 -41.07136 40207 ft 464 kts 239°
2026-05-04 12:09 36.30166 -41.13462 40209 ft 464 kts 239°
2026-05-04 12:10 36.26213 -41.19773 40208 ft 464 kts 239°
2026-05-04 12:10 36.22252 -41.26086 40210 ft 464 kts 238°
2026-05-04 12:11 36.18287 -41.32392 40206 ft 464 kts 238°
2026-05-04 12:11 36.14327 -41.38680 40219 ft 463 kts 238°
2026-05-04 12:12 36.10360 -41.44965 40195 ft 463 kts 238°
2026-05-04 12:12 36.06395 -41.51237 40198 ft 463 kts 238°
2026-05-04 12:14 35.90486 -41.76288 40209 ft 464 kts 238°
2026-05-04 12:15 35.86497 -41.82542 40200 ft 464 kts 238°
2026-05-04 12:15 35.82506 -41.88785 40205 ft 464 kts 238°
2026-05-04 12:16 35.78512 -41.95023 40205 ft 464 kts 238°
2026-05-04 12:16 35.74512 -42.01258 40200 ft 464 kts 238°
2026-05-04 12:17 35.70508 -42.07489 40205 ft 464 kts 237°
2026-05-04 12:17 35.66496 -42.13721 40203 ft 464 kts 237°
2026-05-04 12:18 35.62510 -42.19902 40191 ft 464 kts 237°
2026-05-04 12:18 35.58491 -42.26122 40206 ft 465 kts 237°
2026-05-04 12:19 35.54468 -42.32337 40205 ft 465 kts 237°
2026-05-04 12:19 35.50434 -42.38558 40209 ft 466 kts 237°
2026-05-04 12:20 35.46395 -42.44776 40207 ft 466 kts 237°
2026-05-04 12:20 35.42347 -42.50997 40206 ft 467 kts 237°
2026-05-04 12:21 35.38298 -42.57207 40203 ft 467 kts 237°
2026-05-04 12:21 35.34240 -42.63419 40203 ft 467 kts 237°
2026-05-04 12:22 35.30177 -42.69631 40206 ft 467 kts 237°
2026-05-04 12:22 35.26112 -42.75833 40204 ft 467 kts 237°
2026-05-04 12:23 35.22041 -42.82032 40198 ft 467 kts 237°
2026-05-04 12:23 35.17962 -42.88233 40207 ft 468 kts 237°
2026-05-04 12:24 35.13875 -42.94437 40206 ft 469 kts 237°
2026-05-04 12:24 35.09782 -43.00636 40202 ft 469 kts 237°
2026-05-04 12:25 35.06381 -43.05779 40195 ft 469 kts 237°
2026-05-04 12:25 35.02277 -43.11976 40206 ft 469 kts 237°
2026-05-04 12:26 34.98168 -43.18170 40204 ft 470 kts 237°
2026-05-04 12:26 34.94052 -43.24364 40207 ft 470 kts 237°
2026-05-04 12:27 34.89929 -43.30555 40206 ft 470 kts 237°
2026-05-04 12:27 34.85809 -43.36733 40197 ft 470 kts 237°
2026-05-04 12:28 34.81680 -43.42911 40201 ft 470 kts 237°
2026-05-04 12:28 34.77549 -43.49084 40193 ft 471 kts 237°
2026-05-04 12:29 34.73406 -43.55264 40196 ft 471 kts 237°
2026-05-04 12:29 34.69263 -43.61431 40192 ft 471 kts 237°
2026-05-04 12:30 34.65112 -43.67600 40202 ft 472 kts 237°
2026-05-04 12:30 34.60956 -43.73767 40203 ft 472 kts 237°
2026-05-04 12:31 34.56795 -43.79929 40201 ft 472 kts 237°
2026-05-04 12:31 34.52627 -43.86090 40200 ft 473 kts 237°
2026-05-04 12:32 34.46361 -43.95335 40200 ft 473 kts 237°
2026-05-04 12:33 34.42180 -44.01490 40200 ft 474 kts 237°
2026-05-04 12:33 34.38012 -44.07615 40200 ft 475 kts 237°
2026-05-04 12:34 34.33810 -44.13779 40200 ft 475 kts 237°
2026-05-04 12:34 34.29601 -44.19942 40200 ft 475 kts 237°
2026-05-04 12:35 34.25392 -44.26094 40196 ft 475 kts 237°
2026-05-04 12:35 34.21171 -44.32253 40197 ft 475 kts 237°
2026-05-04 12:36 34.16948 -44.38405 40197 ft 476 kts 237°
2026-05-04 12:36 34.12724 -44.44548 40191 ft 476 kts 237°
2026-05-04 12:37 34.08493 -44.50690 40195 ft 476 kts 237°
2026-05-04 12:37 34.04260 -44.56825 40195 ft 476 kts 237°
2026-05-04 12:38 34.00022 -44.62957 40192 ft 476 kts 237°
2026-05-04 12:38 33.95783 -44.69079 40195 ft 476 kts 237°
2026-05-04 12:39 33.91533 -44.75207 40195 ft 476 kts 237°
2026-05-04 12:39 33.87286 -44.81320 40184 ft 477 kts 237°
2026-05-04 12:40 33.83029 -44.87437 40195 ft 477 kts 237°
2026-05-04 12:40 33.78771 -44.93545 40194 ft 477 kts 237°
2026-05-04 12:41 33.74507 -44.99651 40195 ft 476 kts 237°
2026-05-04 12:41 33.70239 -45.05752 40195 ft 477 kts 237°
2026-05-04 12:42 33.65975 -45.11837 40185 ft 477 kts 237°
2026-05-04 12:42 33.61701 -45.17928 40187 ft 478 kts 237°
2026-05-04 12:43 33.57419 -45.24018 40204 ft 477 kts 237°
2026-05-04 12:43 33.53169 -45.30051 40194 ft 477 kts 236°
2026-05-04 12:44 33.48880 -45.36132 40192 ft 478 kts 236°
2026-05-04 12:44 33.44593 -45.42199 40196 ft 477 kts 236°
2026-05-04 12:45 33.40311 -45.48247 40196 ft 476 kts 236°
2026-05-04 12:45 33.36025 -45.54293 40194 ft 476 kts 236°
2026-05-04 12:46 33.31745 -45.60320 40180 ft 475 kts 237°
2026-05-04 12:46 33.27470 -45.66329 40193 ft 474 kts 236°
2026-05-04 12:47 33.23192 -45.72334 40193 ft 474 kts 236°
2026-05-04 12:47 33.18912 -45.78333 40186 ft 474 kts 236°
2026-05-04 12:48 33.14635 -45.84314 40193 ft 473 kts 236°
2026-05-04 12:48 33.10360 -45.90284 40193 ft 473 kts 236°
2026-05-04 12:49 33.06082 -45.96251 40190 ft 474 kts 236°
2026-05-04 12:49 33.01794 -46.02219 40191 ft 473 kts 236°
2026-05-04 12:50 32.97521 -46.08156 40195 ft 472 kts 236°
2026-05-04 12:50 32.93250 -46.14082 40193 ft 473 kts 236°
2026-05-04 12:51 32.88964 -46.20021 40192 ft 472 kts 236°
2026-05-04 12:51 32.84691 -46.25927 40192 ft 470 kts 236°
2026-05-04 12:52 32.80426 -46.31818 40192 ft 471 kts 236°
2026-05-04 12:52 32.76152 -46.37712 40187 ft 471 kts 236°
2026-05-04 12:53 32.71881 -46.43588 40182 ft 469 kts 236°
2026-05-04 12:53 32.67614 -46.49452 40189 ft 470 kts 236°
2026-05-04 12:54 32.63335 -46.55323 40189 ft 470 kts 236°
2026-05-04 12:54 32.59055 -46.61185 40180 ft 469 kts 236°
2026-05-04 12:55 32.54783 -46.67027 40189 ft 469 kts 236°
2026-05-04 12:55 32.50510 -46.72862 40187 ft 469 kts 236°
2026-05-04 12:56 32.46255 -46.78663 40182 ft 469 kts 236°
2026-05-04 12:56 32.41935 -46.84545 40181 ft 471 kts 236°
2026-05-04 12:57 32.37666 -46.90345 40179 ft 471 kts 235°
2026-05-04 12:57 32.33358 -46.96190 40170 ft 471 kts 235°
2026-05-04 12:58 32.29049 -47.02027 40181 ft 470 kts 235°
2026-05-04 12:58 32.24752 -47.07837 40181 ft 469 kts 235°
2026-05-04 12:59 32.20455 -47.13640 40181 ft 469 kts 235°
2026-05-04 12:59 32.16157 -47.19437 40181 ft 469 kts 235°
2026-05-04 13:00 32.11868 -47.25209 40184 ft 467 kts 235°
2026-05-04 13:00 32.07592 -47.30956 40180 ft 466 kts 235°
2026-05-04 13:01 32.03306 -47.36711 40184 ft 467 kts 235°
2026-05-04 13:01 31.99014 -47.42462 40185 ft 466 kts 235°
2026-05-04 13:02 31.94743 -47.48174 40185 ft 464 kts 235°
2026-05-04 13:02 31.90466 -47.53891 40191 ft 466 kts 235°
2026-05-04 13:03 31.86180 -47.59609 40186 ft 466 kts 235°
2026-05-04 13:03 31.81900 -47.65306 40182 ft 463 kts 235°
2026-05-04 13:04 31.77629 -47.70986 40182 ft 464 kts 235°
2026-05-04 13:04 31.73347 -47.76674 40183 ft 465 kts 235°
2026-05-04 13:05 31.69062 -47.82355 40175 ft 464 kts 234°
2026-05-04 13:05 31.64787 -47.88012 40191 ft 463 kts 234°
2026-05-04 13:06 31.60510 -47.93667 40189 ft 463 kts 234°
2026-05-04 13:06 31.56233 -47.99313 40191 ft 463 kts 234°
2026-05-04 13:07 31.51952 -48.04955 40191 ft 463 kts 234°
2026-05-04 13:07 31.47673 -48.10584 40189 ft 462 kts 234°
2026-05-04 13:08 31.43423 -48.16168 40189 ft 462 kts 234°
2026-05-04 13:08 31.39144 -48.21785 40186 ft 464 kts 234°
2026-05-04 13:09 31.34848 -48.27412 40192 ft 462 kts 234°
2026-05-04 13:09 31.30568 -48.33008 40190 ft 461 kts 234°
2026-05-04 13:10 31.26291 -48.38596 40186 ft 462 kts 234°
2026-05-04 13:10 31.21998 -48.44199 40192 ft 463 kts 234°
2026-05-04 13:11 31.17702 -48.49790 40189 ft 461 kts 234°
2026-05-04 13:11 31.14150 -48.54408 40181 ft 460 kts 234°
2026-05-04 13:12 31.09861 -48.59984 40187 ft 463 kts 234°
2026-05-04 13:12 31.05550 -48.65576 40193 ft 464 kts 234°
2026-05-04 13:13 31.01247 -48.71144 40188 ft 460 kts 234°
2026-05-04 13:13 30.96961 -48.76686 40189 ft 462 kts 234°
2026-05-04 13:14 30.92653 -48.82253 40191 ft 463 kts 234°
2026-05-04 13:14 30.88334 -48.87823 40186 ft 463 kts 234°
2026-05-04 13:15 30.84019 -48.93377 40187 ft 463 kts 234°
2026-05-04 13:15 30.79697 -48.98934 40187 ft 463 kts 234°
2026-05-04 13:16 30.75370 -49.04488 40190 ft 463 kts 234°
2026-05-04 13:16 30.71045 -49.10033 40186 ft 463 kts 234°
2026-05-04 13:17 30.66721 -49.15568 40187 ft 462 kts 234°
2026-05-04 13:17 30.62399 -49.21093 40187 ft 462 kts 234°
2026-05-04 13:18 30.58076 -49.26611 40185 ft 462 kts 233°
2026-05-04 13:18 30.53747 -49.32130 40189 ft 463 kts 233°
2026-05-04 13:19 30.49412 -49.37648 40187 ft 462 kts 233°
2026-05-04 13:19 30.45085 -49.43146 40192 ft 462 kts 233°
2026-05-04 13:20 30.40751 -49.48648 40200 ft 463 kts 233°
2026-05-04 13:20 30.36402 -49.54162 40196 ft 464 kts 233°
2026-05-04 13:21 30.32057 -49.59658 40198 ft 462 kts 233°
2026-05-04 13:21 30.27721 -49.65137 40192 ft 462 kts 233°
2026-05-04 13:22 30.23371 -49.70630 40187 ft 463 kts 233°
2026-05-04 13:22 30.19013 -49.76123 40188 ft 463 kts 233°
2026-05-04 13:23 30.14688 -49.81563 40190 ft 462 kts 233°
2026-05-04 13:23 30.10336 -49.87034 40190 ft 463 kts 233°
2026-05-04 13:24 30.05970 -49.92514 40189 ft 464 kts 233°
2026-05-04 13:24 30.01602 -49.98002 40184 ft 463 kts 234°
2026-05-04 13:25 29.96202 -50.07033 40189 ft 455 kts 243°
2026-05-04 13:25 29.92887 -50.13253 40189 ft 455 kts 244°
2026-05-04 13:26 29.89585 -50.19475 40188 ft 455 kts 244°
2026-05-04 13:26 29.86272 -50.25679 40188 ft 454 kts 243°
2026-05-04 13:27 29.82947 -50.31878 40190 ft 455 kts 243°
2026-05-04 13:27 29.79609 -50.38088 40187 ft 456 kts 243°
2026-05-04 13:28 29.76268 -50.44295 40189 ft 456 kts 243°
2026-05-04 13:28 29.72932 -50.50479 40189 ft 454 kts 243°
2026-05-04 13:29 29.69599 -50.56654 40189 ft 456 kts 243°
2026-05-04 13:29 29.66252 -50.62846 40189 ft 456 kts 243°
2026-05-04 13:30 29.62897 -50.69040 40189 ft 455 kts 243°
2026-05-04 13:30 29.59554 -50.75202 40190 ft 454 kts 243°
2026-05-04 13:31 29.56226 -50.81331 40187 ft 456 kts 243°
2026-05-04 13:31 29.52864 -50.87512 40183 ft 456 kts 243°
2026-05-04 13:32 29.49504 -50.93678 40192 ft 455 kts 243°
2026-05-04 13:32 29.46147 -50.99828 40192 ft 454 kts 243°
2026-05-04 13:33 29.42790 -51.05972 40192 ft 454 kts 243°
2026-05-04 13:33 29.39434 -51.12104 40192 ft 454 kts 243°
2026-05-04 13:34 29.36071 -51.18241 40189 ft 454 kts 243°
2026-05-04 13:34 29.32707 -51.24369 40189 ft 454 kts 243°
2026-05-04 13:35 29.27650 -51.33567 40194 ft 456 kts 243°
2026-05-04 13:36 29.24266 -51.39708 40192 ft 455 kts 243°
2026-05-04 13:36 29.20889 -51.45826 40192 ft 454 kts 243°
2026-05-04 13:37 29.17514 -51.51933 40179 ft 454 kts 243°
2026-05-04 13:37 29.14129 -51.58051 40195 ft 456 kts 242°
2026-05-04 13:38 29.10738 -51.64170 40192 ft 455 kts 242°
2026-05-04 13:38 29.07352 -51.70269 40192 ft 454 kts 242°
2026-05-04 13:39 29.03985 -51.76326 40192 ft 454 kts 242°
2026-05-04 13:39 29.00591 -51.82423 40195 ft 456 kts 242°
2026-05-04 13:40 28.97188 -51.88528 40192 ft 455 kts 242°
2026-05-04 13:40 28.93790 -51.94613 40194 ft 454 kts 242°
2026-05-04 13:41 28.90389 -52.00694 40194 ft 454 kts 242°
2026-05-04 13:41 28.86983 -52.06777 40195 ft 455 kts 242°
2026-05-04 13:42 28.81869 -52.15893 40194 ft 454 kts 242°
2026-05-04 13:42 28.78457 -52.21965 40195 ft 454 kts 242°
2026-05-04 13:43 28.75045 -52.28027 40192 ft 454 kts 242°
2026-05-04 13:43 28.71652 -52.34048 40194 ft 455 kts 242°
2026-05-04 13:44 28.68230 -52.40110 40186 ft 455 kts 242°
2026-05-04 13:44 28.64786 -52.46203 40193 ft 455 kts 242°
2026-05-04 13:45 28.61378 -52.52223 40184 ft 455 kts 242°
2026-05-04 13:45 28.57955 -52.58260 40189 ft 454 kts 242°
2026-05-04 13:46 28.54524 -52.64305 40189 ft 455 kts 242°
2026-05-04 13:46 28.51087 -52.70350 40192 ft 455 kts 242°
2026-05-04 13:47 28.47649 -52.76389 40193 ft 455 kts 242°
2026-05-04 13:47 28.44218 -52.82405 40174 ft 453 kts 241°
2026-05-04 13:48 28.40779 -52.88430 40190 ft 454 kts 241°
2026-05-04 13:48 28.37337 -52.94451 40193 ft 455 kts 241°
2026-05-04 13:49 28.33886 -53.00478 40193 ft 455 kts 241°
2026-05-04 13:49 28.30440 -53.06486 40193 ft 453 kts 241°
2026-05-04 13:50 28.27000 -53.12477 40192 ft 454 kts 241°
2026-05-04 13:50 28.23547 -53.18484 40192 ft 455 kts 241°
2026-05-04 13:51 28.20089 -53.24490 40192 ft 455 kts 241°
2026-05-04 13:51 28.16653 -53.30449 40192 ft 453 kts 241°
2026-05-04 13:52 28.11481 -53.39402 40191 ft 453 kts 241°
2026-05-04 13:53 28.08018 -53.45388 40194 ft 455 kts 241°
2026-05-04 13:53 28.04550 -53.51373 40195 ft 455 kts 241°
2026-05-04 13:54 27.99340 -53.60348 40195 ft 455 kts 241°
2026-05-04 13:55 27.94127 -53.69311 40195 ft 455 kts 241°
2026-05-04 13:55 27.88906 -53.78268 40194 ft 453 kts 240°
2026-05-04 13:56 27.85439 -53.84204 40195 ft 452 kts 240°
2026-05-04 13:57 27.80237 -53.93100 40194 ft 454 kts 240°
2026-05-04 13:58 27.73265 -54.04994 40194 ft 453 kts 240°
2026-05-04 13:58 27.68046 -54.13872 40195 ft 452 kts 240°
2026-05-04 13:59 27.64588 -54.19747 40207 ft 453 kts 240°
2026-05-04 14:00 27.59348 -54.28635 40193 ft 453 kts 240°
2026-05-04 14:00 27.54678 -54.36537 40189 ft 452 kts 240°
2026-05-04 14:01 27.51187 -54.42437 40203 ft 452 kts 240°
2026-05-04 14:02 27.45944 -54.51287 40193 ft 453 kts 240°
2026-05-04 14:02 27.42444 -54.57180 40202 ft 452 kts 240°
2026-05-04 14:03 27.38949 -54.63057 40197 ft 452 kts 240°
2026-05-04 14:03 27.35452 -54.68930 40194 ft 452 kts 240°
2026-05-04 14:04 27.30221 -54.77704 40200 ft 453 kts 240°
2026-05-04 14:04 27.26714 -54.83575 40199 ft 452 kts 240°
2026-05-04 14:05 27.21454 -54.92365 40200 ft 452 kts 240°
2026-05-04 14:06 27.17947 -54.98218 40200 ft 452 kts 240°
2026-05-04 14:06 27.14435 -55.04070 40199 ft 452 kts 239°
2026-05-04 14:07 27.10921 -55.09918 40197 ft 451 kts 239°
2026-05-04 14:07 27.07414 -55.15747 40199 ft 451 kts 239°
2026-05-04 14:08 27.03900 -55.21579 40198 ft 451 kts 239°
2026-05-04 14:08 27.00388 -55.27402 40199 ft 451 kts 239°
2026-05-04 14:09 26.95116 -55.36127 40199 ft 451 kts 239°
2026-05-04 14:10 26.89839 -55.44843 40200 ft 451 kts 239°
2026-05-04 14:10 26.86318 -55.50649 40197 ft 451 kts 239°
2026-05-04 14:11 26.82793 -55.56456 40191 ft 450 kts 239°
2026-05-04 14:11 26.77507 -55.65147 40199 ft 451 kts 239°
2026-05-04 14:12 26.73979 -55.70938 40197 ft 451 kts 239°
2026-05-04 14:13 26.68674 -55.79633 40197 ft 451 kts 239°
2026-05-04 14:13 26.65142 -55.85414 40186 ft 450 kts 239°
2026-05-04 14:14 26.61630 -55.91153 40195 ft 451 kts 239°
2026-05-04 14:14 26.56292 -55.99862 40193 ft 451 kts 239°
2026-05-04 14:15 26.49223 -56.11371 40194 ft 451 kts 239°
2026-05-04 14:16 26.43888 -56.20037 40194 ft 452 kts 239°
2026-05-04 14:17 26.38543 -56.28703 40198 ft 452 kts 239°
2026-05-04 14:18 26.33193 -56.37361 40192 ft 451 kts 238°
2026-05-04 14:19 26.26066 -56.48869 40192 ft 451 kts 238°
2026-05-04 14:19 26.22504 -56.54610 40192 ft 451 kts 238°
2026-05-04 14:20 26.18935 -56.60354 40193 ft 451 kts 238°
2026-05-04 14:20 26.15368 -56.66089 40192 ft 450 kts 238°
2026-05-04 14:21 26.10036 -56.74646 40189 ft 451 kts 238°
2026-05-04 14:21 26.06459 -56.80380 40193 ft 451 kts 238°
2026-05-04 14:22 26.02882 -56.86106 40193 ft 451 kts 238°
2026-05-04 14:22 25.99303 -56.91827 40195 ft 451 kts 238°
2026-05-04 14:23 25.93929 -57.00404 40186 ft 451 kts 238°
2026-05-04 14:24 25.90341 -57.06123 40190 ft 451 kts 238°
2026-05-04 14:24 25.86748 -57.11842 40186 ft 451 kts 238°
2026-05-04 14:25 25.83154 -57.17556 40189 ft 452 kts 238°
2026-05-04 14:25 25.77749 -57.26135 40188 ft 452 kts 238°
2026-05-04 14:26 25.74147 -57.31844 40185 ft 452 kts 238°
2026-05-04 14:26 25.70538 -57.37557 40187 ft 452 kts 238°
2026-05-04 14:27 25.66925 -57.43270 40194 ft 453 kts 238°
2026-05-04 14:27 25.63308 -57.48982 40188 ft 453 kts 238°
2026-05-04 14:28 25.59689 -57.54688 40187 ft 453 kts 238°
2026-05-04 14:28 25.56090 -57.60357 40176 ft 453 kts 238°
2026-05-04 14:29 25.48828 -57.71778 40185 ft 454 kts 237°
2026-05-04 14:30 25.45190 -57.77488 40193 ft 454 kts 237°
2026-05-04 14:31 25.39723 -57.86054 40184 ft 454 kts 237°
2026-05-04 14:32 25.32426 -57.97467 40174 ft 455 kts 237°
2026-05-04 14:32 25.28768 -58.03177 40175 ft 455 kts 237°
2026-05-04 14:33 25.25105 -58.08888 40183 ft 455 kts 237°
2026-05-04 14:33 25.21442 -58.14593 40173 ft 455 kts 237°
2026-05-04 14:34 25.17777 -58.20293 40162 ft 455 kts 237°
2026-05-04 14:34 25.14126 -58.25965 40180 ft 456 kts 237°
2026-05-04 14:35 25.10425 -58.31709 40182 ft 457 kts 237°
2026-05-04 14:35 25.06765 -58.37381 40178 ft 457 kts 237°
2026-05-04 14:36 25.03079 -58.43086 40176 ft 457 kts 237°
2026-05-04 14:36 24.99390 -58.48790 40178 ft 457 kts 237°
2026-05-04 14:37 24.95698 -58.54492 40175 ft 458 kts 237°
2026-05-04 14:37 24.91997 -58.60200 40176 ft 458 kts 237°
2026-05-04 14:38 24.88291 -58.65910 40176 ft 458 kts 237°
2026-05-04 14:38 24.84588 -58.71609 40176 ft 458 kts 237°
2026-05-04 14:39 24.80878 -58.77310 40176 ft 458 kts 237°
2026-05-04 14:39 24.77166 -58.83010 40171 ft 458 kts 237°
2026-05-04 14:40 24.71592 -58.91554 40173 ft 458 kts 237°
2026-05-04 14:40 24.67866 -58.97257 40172 ft 459 kts 237°
2026-05-04 14:41 24.64143 -59.02950 40177 ft 459 kts 237°
2026-05-04 14:42 24.56686 -59.14331 40168 ft 460 kts 237°
2026-05-04 14:42 24.52945 -59.20031 40171 ft 460 kts 237°
2026-05-04 14:43 24.49199 -59.25731 40173 ft 460 kts 237°
2026-05-04 14:43 24.45456 -59.31420 40170 ft 460 kts 237°
2026-05-04 14:44 24.41711 -59.37106 40173 ft 460 kts 237°
2026-05-04 14:44 24.37957 -59.42799 40174 ft 460 kts 236°
2026-05-04 14:45 24.34205 -59.48482 40172 ft 460 kts 236°
2026-05-04 14:45 24.30452 -59.54160 40173 ft 460 kts 236°
2026-05-04 14:46 24.26726 -59.59791 40173 ft 460 kts 236°
2026-05-04 14:46 24.22966 -59.65466 40173 ft 460 kts 236°
2026-05-04 14:47 24.19213 -59.71126 40174 ft 459 kts 236°
2026-05-04 14:47 24.15449 -59.76794 40168 ft 460 kts 236°
2026-05-04 14:48 24.11680 -59.82464 40171 ft 461 kts 236°
2026-05-04 14:48 24.08519 -59.87215 40170 ft 461 kts 236°
2026-05-04 14:49 24.04770 -59.92842 40170 ft 460 kts 236°
2026-05-04 14:49 24.01006 -59.98492 40172 ft 459 kts 236°
2026-05-04 14:50 23.97626 -60.04401 40163 ft 458 kts 241°
2026-05-04 14:50 23.94389 -60.10401 40171 ft 459 kts 242°
2026-05-04 14:51 23.91167 -60.16419 40169 ft 459 kts 242°
2026-05-04 14:51 23.87939 -60.22431 40168 ft 458 kts 242°
2026-05-04 14:52 23.84708 -60.28428 40166 ft 458 kts 242°
2026-05-04 14:52 23.81474 -60.34419 40166 ft 458 kts 241°
2026-05-04 14:53 23.78238 -60.40407 40170 ft 458 kts 241°
2026-05-04 14:53 23.74998 -60.46396 40167 ft 458 kts 241°
2026-05-04 14:54 23.71757 -60.52379 40170 ft 458 kts 241°
2026-05-04 14:54 23.68513 -60.58359 40167 ft 458 kts 241°
2026-05-04 14:55 23.65271 -60.64331 40162 ft 458 kts 241°
2026-05-04 14:55 23.62026 -60.70300 40167 ft 458 kts 241°
2026-05-04 14:56 23.58776 -60.76271 40169 ft 457 kts 241°
2026-05-04 14:56 23.55530 -60.82227 40165 ft 457 kts 241°
2026-05-04 14:57 23.52282 -60.88179 40162 ft 457 kts 241°
2026-05-04 14:57 23.49031 -60.94132 40163 ft 457 kts 241°
2026-05-04 14:58 23.45774 -61.00087 40162 ft 457 kts 241°
2026-05-04 14:58 23.42520 -61.06029 40164 ft 457 kts 241°
2026-05-04 14:59 23.39269 -61.11959 40156 ft 455 kts 241°
2026-05-04 15:00 23.34397 -61.20834 40159 ft 456 kts 241°
2026-05-04 15:00 23.31137 -61.26764 40157 ft 457 kts 241°
2026-05-04 15:01 23.26242 -61.35655 40158 ft 456 kts 241°
2026-05-04 15:01 23.22986 -61.41558 40157 ft 454 kts 241°
2026-05-04 15:02 23.19759 -61.47402 40159 ft 454 kts 241°
2026-05-04 15:02 23.16508 -61.53286 40158 ft 454 kts 241°
2026-05-04 15:03 23.13246 -61.59181 40154 ft 455 kts 241°
2026-05-04 15:03 23.09980 -61.65078 40154 ft 456 kts 241°
2026-05-04 15:04 23.06707 -61.70978 40151 ft 456 kts 241°
2026-05-04 15:04 23.03430 -61.76879 40151 ft 456 kts 241°
2026-05-04 15:05 23.00150 -61.82779 40151 ft 456 kts 241°
2026-05-04 15:05 22.96871 -61.88670 40151 ft 456 kts 241°
2026-05-04 15:06 22.93593 -61.94554 40149 ft 456 kts 241°
2026-05-04 15:07 22.88669 -62.03378 40149 ft 455 kts 241°
2026-05-04 15:07 22.85389 -62.09248 40148 ft 455 kts 240°
2026-05-04 15:08 22.82106 -62.15117 40149 ft 455 kts 240°
2026-05-04 15:08 22.78819 -62.20986 40148 ft 455 kts 240°
2026-05-04 15:09 22.75535 -62.26843 40148 ft 454 kts 240°
2026-05-04 15:09 22.72259 -62.32678 40142 ft 453 kts 241°
2026-05-04 15:10 22.67326 -62.41456 40141 ft 455 kts 241°
2026-05-04 15:11 22.62382 -62.50236 40144 ft 455 kts 240°
2026-05-04 15:11 22.59086 -62.56079 40143 ft 454 kts 241°
2026-05-04 15:12 22.55801 -62.61899 40143 ft 452 kts 241°
2026-05-04 15:12 22.52547 -62.67658 40140 ft 452 kts 241°
2026-05-04 15:13 22.49263 -62.73464 40135 ft 453 kts 241°
2026-05-04 15:13 22.45966 -62.79285 40139 ft 454 kts 241°
2026-05-04 15:14 22.42666 -62.85105 40142 ft 454 kts 241°
2026-05-04 15:14 22.39371 -62.90908 40136 ft 452 kts 241°
2026-05-04 15:15 22.36085 -62.96691 40136 ft 452 kts 241°
2026-05-04 15:15 22.32795 -63.02476 40140 ft 452 kts 241°
2026-05-04 15:16 22.27854 -63.11150 40136 ft 452 kts 241°
2026-05-04 15:17 22.22919 -63.19798 40137 ft 450 kts 241°
2026-05-04 15:17 22.17992 -63.28419 40135 ft 450 kts 241°
2026-05-04 15:18 22.14727 -63.34124 40137 ft 450 kts 241°
2026-05-04 15:19 22.09794 -63.42733 40134 ft 450 kts 241°
2026-05-04 15:19 22.04859 -63.51331 40133 ft 450 kts 241°
2026-05-04 15:20 22.01559 -63.57073 40131 ft 451 kts 241°
2026-05-04 15:20 21.98256 -63.62814 40127 ft 451 kts 241°
2026-05-04 15:21 21.94952 -63.68550 40126 ft 451 kts 241°
2026-05-04 15:22 21.89988 -63.77157 40127 ft 450 kts 241°
2026-05-04 15:22 21.84903 -63.85665 40116 ft 452 kts 237°
2026-05-04 15:23 21.81150 -63.91104 40124 ft 453 kts 236°
2026-05-04 15:23 21.77340 -63.96512 40125 ft 454 kts 236°
2026-05-04 15:24 21.69707 -64.07321 40124 ft 453 kts 236°
2026-05-04 15:25 21.65898 -64.12719 40122 ft 453 kts 236°
2026-05-04 15:26 21.60184 -64.20811 40113 ft 453 kts 236°
2026-05-04 15:26 21.54480 -64.28876 40122 ft 454 kts 236°
2026-05-04 15:27 21.48738 -64.36982 40120 ft 454 kts 236°
2026-05-04 15:28 21.43005 -64.45062 40118 ft 453 kts 236°
2026-05-04 15:29 21.37278 -64.53124 40119 ft 453 kts 236°
2026-05-04 15:30 21.23856 -64.71970 40116 ft 455 kts 236°
2026-05-04 15:31 21.18088 -64.80050 40113 ft 455 kts 236°
2026-05-04 15:32 21.08474 -64.93491 40113 ft 455 kts 236°
2026-05-04 15:34 20.98831 -65.06940 40110 ft 455 kts 236°
2026-05-04 15:34 20.93703 -65.14079 40108 ft 455 kts 236°
2026-05-04 15:35 20.87920 -65.22119 40110 ft 455 kts 236°
2026-05-04 15:36 20.82127 -65.30162 40107 ft 456 kts 235°
2026-05-04 15:36 20.78254 -65.35533 40108 ft 455 kts 235°
2026-05-04 15:37 20.74388 -65.40888 40101 ft 455 kts 235°
2026-05-04 15:37 20.70522 -65.46240 40107 ft 455 kts 235°
2026-05-04 15:38 20.66651 -65.51592 40102 ft 455 kts 235°
2026-05-04 15:38 20.62781 -65.56939 40101 ft 455 kts 235°
2026-05-04 15:39 20.58906 -65.62286 40110 ft 456 kts 235°
2026-05-04 15:40 20.53093 -65.70300 40100 ft 455 kts 235°
2026-05-04 15:40 20.49242 -65.75602 40097 ft 455 kts 235°
2026-05-04 15:41 20.45339 -65.80972 40100 ft 455 kts 235°
2026-05-04 15:41 20.41490 -65.86262 40108 ft 455 kts 235°
2026-05-04 15:42 20.37612 -65.91588 40097 ft 455 kts 235°
2026-05-04 15:42 20.33734 -65.96909 40092 ft 455 kts 235°
2026-05-04 15:43 20.29849 -66.02233 40099 ft 455 kts 235°
2026-05-04 15:43 20.25966 -66.07550 40097 ft 455 kts 235°
2026-05-04 15:44 20.22083 -66.12863 40090 ft 455 kts 235°
2026-05-04 15:44 20.18194 -66.18179 40088 ft 455 kts 235°
2026-05-04 15:45 20.14306 -66.23489 40086 ft 455 kts 235°
2026-05-04 15:45 20.10419 -66.28792 40095 ft 454 kts 235°
2026-05-04 15:46 20.06532 -66.34091 40088 ft 454 kts 235°
2026-05-04 15:46 20.02644 -66.39386 40091 ft 454 kts 235°
2026-05-04 15:47 19.98751 -66.44684 40094 ft 454 kts 235°
2026-05-04 15:47 19.94857 -66.49977 40089 ft 454 kts 235°
2026-05-04 15:48 19.90987 -66.55234 40088 ft 454 kts 235°
2026-05-04 15:48 19.85153 -66.63150 40095 ft 453 kts 234°
2026-05-04 15:49 19.81259 -66.68427 40088 ft 453 kts 234°
2026-05-04 15:49 19.77371 -66.73692 40087 ft 453 kts 234°
2026-05-04 15:50 19.73478 -66.78959 40086 ft 453 kts 234°
2026-05-04 15:50 19.69588 -66.84217 40091 ft 453 kts 234°
2026-05-04 15:51 19.65695 -66.89475 40081 ft 453 kts 234°
2026-05-04 15:51 19.61803 -66.94725 40084 ft 452 kts 234°
2026-05-04 15:52 19.57911 -66.99973 40081 ft 452 kts 234°
2026-05-04 15:52 19.54020 -67.05215 40074 ft 453 kts 234°
2026-05-04 15:53 19.50122 -67.10460 40072 ft 453 kts 234°
2026-05-04 15:53 19.46226 -67.15699 40079 ft 453 kts 234°
2026-05-04 15:54 19.42326 -67.20938 40078 ft 453 kts 234°
2026-05-04 15:54 19.38425 -67.26174 40074 ft 452 kts 234°
2026-05-04 15:55 19.34527 -67.31402 40081 ft 452 kts 234°
2026-05-04 15:55 19.30635 -67.36618 40071 ft 452 kts 234°
2026-05-04 15:56 19.26731 -67.41845 40074 ft 453 kts 234°
2026-05-04 15:56 19.22823 -67.47073 40080 ft 453 kts 234°
2026-05-04 15:57 19.18913 -67.52299 40080 ft 453 kts 234°
2026-05-04 15:57 19.15005 -67.57517 40072 ft 452 kts 234°
2026-05-04 15:58 19.11101 -67.62726 40074 ft 452 kts 234°
2026-05-04 15:58 19.07196 -67.67932 40074 ft 452 kts 234°
2026-05-04 15:59 19.03313 -67.73105 40073 ft 452 kts 234°
2026-05-04 15:59 18.99402 -67.78311 40075 ft 452 kts 234°
2026-05-04 16:00 18.95485 -67.83520 40076 ft 453 kts 234°
2026-05-04 16:00 18.91570 -67.88721 40072 ft 453 kts 234°
2026-05-04 16:01 18.87650 -67.93925 40076 ft 452 kts 234°
2026-05-04 16:01 18.83749 -67.99132 40076 ft 451 kts 236°
2026-05-04 16:02 18.80283 -68.04641 40074 ft 450 kts 240°
2026-05-04 16:03 18.75272 -68.13012 40078 ft 451 kts 240°
2026-05-04 16:03 18.71932 -68.18611 40071 ft 451 kts 240°
2026-05-04 16:04 18.68584 -68.24203 40073 ft 451 kts 240°
2026-05-04 16:04 18.63560 -68.32574 40078 ft 450 kts 240°
2026-05-04 16:05 18.60204 -68.38159 40075 ft 450 kts 240°
2026-05-04 16:05 18.56856 -68.43725 40206 ft 449 kts 240°
2026-05-04 16:06 18.55190 -68.46494 40437 ft 449 kts 240°
2026-05-04 16:06 18.50744 -68.53878 41169 ft 448 kts 240°
2026-05-04 16:07 18.48514 -68.57578 41499 ft 447 kts 239°
2026-05-04 16:07 18.43520 -68.65857 42078 ft 449 kts 239°
2026-05-04 16:08 18.41831 -68.68656 42077 ft 454 kts 239°
2026-05-04 16:09 18.33267 -68.82817 42075 ft 459 kts 239°
2026-05-04 16:10 18.26434 -68.94095 42069 ft 458 kts 239°
2026-05-04 16:11 18.19549 -69.05441 42070 ft 459 kts 239°
2026-05-04 16:12 18.09247 -69.22377 42070 ft 458 kts 239°
2026-05-04 16:13 18.02382 -69.33640 42067 ft 457 kts 239°
2026-05-04 16:14 17.95513 -69.44890 42064 ft 458 kts 239°
2026-05-04 16:16 17.86902 -69.58965 42064 ft 457 kts 239°
2026-05-04 16:17 17.78311 -69.72978 42067 ft 456 kts 239°
2026-05-04 16:18 17.71439 -69.84166 42061 ft 456 kts 239°
2026-05-04 16:19 17.62849 -69.98122 42061 ft 455 kts 239°
2026-05-04 16:20 17.54271 -70.12032 42061 ft 454 kts 239°
2026-05-04 16:22 17.45709 -70.25885 42056 ft 453 kts 239°
2026-05-04 16:23 17.35973 -70.41605 42056 ft 454 kts 239°
2026-05-04 16:25 17.25664 -70.58210 42053 ft 453 kts 239°
2026-05-04 16:26 17.13671 -70.77476 42050 ft 452 kts 239°
2026-05-04 16:28 17.05081 -70.91242 42048 ft 452 kts 239°
2026-05-04 16:29 16.93053 -71.10472 42042 ft 451 kts 239°
2026-05-04 16:31 16.84461 -71.24176 42035 ft 451 kts 238°
2026-05-04 16:32 16.74120 -71.40636 42040 ft 452 kts 238°
2026-05-04 16:33 16.67226 -71.51586 42037 ft 452 kts 238°
2026-05-04 16:34 16.62050 -71.59796 42034 ft 451 kts 238°
2026-05-04 16:35 16.57579 -71.68289 42035 ft 446 kts 253°
2026-05-04 16:35 16.56364 -71.77856 42032 ft 446 kts 268°
2026-05-04 16:36 16.56179 -71.87558 42029 ft 446 kts 269°
2026-05-04 16:37 16.55984 -71.97265 42028 ft 446 kts 269°
2026-05-04 16:38 16.55664 -72.10180 42028 ft 445 kts 268°
2026-05-04 16:39 16.55253 -72.26312 42035 ft 445 kts 268°
2026-05-04 16:40 16.54917 -72.39196 42026 ft 444 kts 268°
2026-05-04 16:41 16.54485 -72.55286 42023 ft 444 kts 268°
2026-05-04 16:43 16.54043 -72.71353 42023 ft 443 kts 268°
2026-05-04 16:43 16.53771 -72.80981 42023 ft 443 kts 268°
2026-05-04 16:45 16.53217 -73.00188 42023 ft 442 kts 268°
2026-05-04 16:46 16.52741 -73.16205 42023 ft 442 kts 268°
2026-05-04 16:47 16.52352 -73.29013 42023 ft 442 kts 268°
2026-05-04 16:48 16.51955 -73.41814 42023 ft 442 kts 268°
2026-05-04 16:49 16.49697 -73.54311 42020 ft 442 kts 251°
2026-05-04 16:50 16.45482 -73.66348 42023 ft 442 kts 250°
2026-05-04 16:51 16.42314 -73.75357 42018 ft 441 kts 251°
2026-05-04 16:52 16.38114 -73.87367 42012 ft 442 kts 250°
2026-05-04 16:53 16.34953 -73.96389 42013 ft 442 kts 250°
2026-05-04 16:54 16.30749 -74.08364 42015 ft 441 kts 250°
2026-05-04 16:55 16.24428 -74.26324 42009 ft 440 kts 250°
2026-05-04 16:56 16.19152 -74.41273 42008 ft 440 kts 250°
2026-05-04 16:57 16.15985 -74.50227 42009 ft 440 kts 250°
2026-05-04 16:58 16.11757 -74.62163 42009 ft 440 kts 250°
2026-05-04 17:00 16.05379 -74.80118 42004 ft 441 kts 250°
2026-05-04 17:01 16.00058 -74.95058 42004 ft 441 kts 250°
2026-05-04 17:02 15.95810 -75.06960 42002 ft 441 kts 250°
2026-05-04 17:03 15.92610 -75.15912 42002 ft 440 kts 249°
2026-05-04 17:03 15.89407 -75.24855 42001 ft 440 kts 249°
2026-05-04 17:04 15.85129 -75.36784 42001 ft 440 kts 249°
2026-05-04 17:05 15.80837 -75.48727 41998 ft 442 kts 249°
2026-05-04 17:06 15.77604 -75.57707 41998 ft 442 kts 249°
2026-05-04 17:07 15.75087 -75.64691 41998 ft 442 kts 249°
2026-05-04 17:07 15.72215 -75.72647 41995 ft 442 kts 249°
2026-05-04 17:08 15.68978 -75.81605 41993 ft 442 kts 249°
2026-05-04 17:09 15.67183 -75.86567 41993 ft 442 kts 249°
2026-05-04 17:09 15.65020 -75.92540 41993 ft 442 kts 249°
2026-05-04 17:10 15.59616 -76.07440 41989 ft 441 kts 249°
2026-05-04 17:11 15.57449 -76.13404 41990 ft 441 kts 249°
2026-05-04 17:12 15.54199 -76.22338 41992 ft 442 kts 249°
2026-05-04 17:13 15.48749 -76.37292 41990 ft 444 kts 249°
2026-05-04 17:14 15.44381 -76.49251 41990 ft 444 kts 249°
2026-05-04 17:15 15.41101 -76.58217 41988 ft 443 kts 249°
2026-05-04 17:16 15.36726 -76.70157 41987 ft 443 kts 249°
2026-05-04 17:17 15.32349 -76.82080 41990 ft 443 kts 249°
2026-05-04 17:18 15.27966 -76.93997 41990 ft 442 kts 249°
2026-05-04 17:19 15.23576 -77.05912 41989 ft 444 kts 249°
2026-05-04 17:20 15.19164 -77.17862 41989 ft 444 kts 249°
2026-05-04 17:20 15.15851 -77.26823 41989 ft 444 kts 249°
2026-05-04 17:21 15.11429 -77.38762 41984 ft 444 kts 249°
2026-05-04 17:22 15.09217 -77.44726 41984 ft 444 kts 249°
2026-05-04 17:23 15.04803 -77.56612 41982 ft 444 kts 249°
2026-05-04 17:24 15.01479 -77.65548 41985 ft 443 kts 249°
2026-05-04 17:25 14.95753 -77.76814 41985 ft 443 kts 239°
2026-05-04 17:26 14.89293 -77.87714 41981 ft 445 kts 239°
2026-05-04 17:27 14.81230 -78.01363 41982 ft 444 kts 239°
2026-05-04 17:28 14.74791 -78.12260 41979 ft 444 kts 239°
2026-05-04 17:29 14.65124 -78.28588 41976 ft 444 kts 239°
2026-05-04 17:31 14.57054 -78.42193 41974 ft 445 kts 238°
2026-05-04 17:32 14.48991 -78.55763 41974 ft 445 kts 238°
2026-05-04 17:33 14.42518 -78.66640 41974 ft 445 kts 238°
2026-05-04 17:34 14.36047 -78.77499 41974 ft 444 kts 238°
2026-05-04 17:35 14.27958 -78.91053 41974 ft 444 kts 238°
2026-05-04 17:36 14.24720 -78.96472 41972 ft 444 kts 238°
2026-05-04 17:36 14.21486 -79.01881 41972 ft 444 kts 238°
2026-05-04 17:37 14.18246 -79.07296 41970 ft 443 kts 238°
2026-05-04 17:37 14.15010 -79.12702 41971 ft 443 kts 238°
2026-05-04 17:38 14.11772 -79.18107 41971 ft 443 kts 238°
2026-05-04 17:38 14.08535 -79.23507 41968 ft 443 kts 238°
2026-05-04 17:39 14.03679 -79.31601 41971 ft 443 kts 238°
2026-05-04 17:39 14.00438 -79.36998 41971 ft 443 kts 238°
2026-05-04 17:40 13.97199 -79.42390 41968 ft 443 kts 238°
2026-05-04 17:40 13.93954 -79.47787 41969 ft 443 kts 238°
2026-05-04 17:41 13.90705 -79.53186 41970 ft 443 kts 238°
2026-05-04 17:41 13.87459 -79.58579 41972 ft 443 kts 238°
2026-05-04 17:42 13.84208 -79.63975 41965 ft 443 kts 238°
2026-05-04 17:42 13.80953 -79.69375 41966 ft 443 kts 238°
2026-05-04 17:43 13.77703 -79.74764 41972 ft 443 kts 238°
2026-05-04 17:43 13.74451 -79.80152 41967 ft 443 kts 238°
2026-05-04 17:44 13.71196 -79.85541 41968 ft 443 kts 238°
2026-05-04 17:44 13.67943 -79.90925 41969 ft 443 kts 238°
2026-05-04 17:45 13.64691 -79.96302 41966 ft 443 kts 238°
2026-05-04 17:45 13.61429 -80.01694 41967 ft 444 kts 238°
2026-05-04 17:46 13.58190 -80.07042 41968 ft 444 kts 238°
2026-05-04 17:46 13.54923 -80.12435 41965 ft 444 kts 238°
2026-05-04 17:47 13.51661 -80.17815 41967 ft 444 kts 238°
2026-05-04 17:47 13.48394 -80.23201 41977 ft 444 kts 238°
2026-05-04 17:48 13.45125 -80.28587 41967 ft 444 kts 238°
2026-05-04 17:48 13.41854 -80.33972 41974 ft 444 kts 238°
2026-05-04 17:49 13.38584 -80.39353 41967 ft 444 kts 238°
2026-05-04 17:49 13.35312 -80.44733 41967 ft 444 kts 238°
2026-05-04 17:50 13.32038 -80.50114 41974 ft 444 kts 238°
2026-05-04 17:50 13.28765 -80.55492 41978 ft 445 kts 237°
2026-05-04 17:51 13.25482 -80.60878 41980 ft 445 kts 237°
2026-05-04 17:51 13.22195 -80.66270 41980 ft 445 kts 237°
2026-05-04 17:52 13.18912 -80.71651 41975 ft 445 kts 237°
2026-05-04 17:52 13.15625 -80.77036 41981 ft 445 kts 237°
2026-05-04 17:53 13.12872 -80.81545 41966 ft 445 kts 237°
2026-05-04 17:53 13.09583 -80.86927 41968 ft 445 kts 237°
2026-05-04 17:54 13.06314 -80.92274 41967 ft 445 kts 237°
2026-05-04 17:54 13.03026 -80.97648 41966 ft 446 kts 237°
2026-05-04 17:55 12.99729 -81.03033 41965 ft 446 kts 237°
2026-05-04 17:55 12.96435 -81.08413 41963 ft 446 kts 237°
2026-05-04 17:56 12.93130 -81.13806 41982 ft 447 kts 237°
2026-05-04 17:56 12.89799 -81.19236 41971 ft 452 kts 237°
2026-05-04 17:57 12.86472 -81.24658 41965 ft 448 kts 237°
2026-05-04 17:57 12.83164 -81.30046 41973 ft 447 kts 237°
2026-05-04 17:58 12.79846 -81.35445 41965 ft 447 kts 237°
2026-05-04 17:58 12.76527 -81.40844 41964 ft 448 kts 237°
2026-05-04 17:59 12.73211 -81.46235 41964 ft 448 kts 237°
2026-05-04 18:00 12.68231 -81.54326 41972 ft 447 kts 237°
2026-05-04 18:00 12.64910 -81.59717 41966 ft 447 kts 237°
2026-05-04 18:01 12.61593 -81.65101 41966 ft 448 kts 237°
2026-05-04 18:01 12.58117 -81.70391 41967 ft 448 kts 230°
2026-05-04 18:02 12.51761 -81.77348 41965 ft 448 kts 225°
2026-05-04 18:02 12.47372 -81.81891 41966 ft 448 kts 225°
2026-05-04 18:03 12.42987 -81.86425 41974 ft 448 kts 225°
2026-05-04 18:03 12.38612 -81.90966 41972 ft 448 kts 225°
2026-05-04 18:04 12.34240 -81.95512 41974 ft 448 kts 225°
2026-05-04 18:05 12.27688 -82.02324 41968 ft 448 kts 225°
2026-05-04 18:05 12.23308 -82.06873 41970 ft 449 kts 225°
2026-05-04 18:06 12.16727 -82.13703 41962 ft 449 kts 225°
2026-05-04 18:06 12.12343 -82.18250 41967 ft 449 kts 225°
2026-05-04 18:07 12.07958 -82.22796 41959 ft 449 kts 225°
2026-05-04 18:07 12.03572 -82.27341 41966 ft 449 kts 225°
2026-05-04 18:08 11.99217 -82.31851 41966 ft 449 kts 225°
2026-05-04 18:08 11.94834 -82.36388 41971 ft 449 kts 225°
2026-05-04 18:09 11.86048 -82.45477 41969 ft 450 kts 225°
2026-05-04 18:10 11.81646 -82.50026 41962 ft 450 kts 225°
2026-05-04 18:10 11.77247 -82.54571 41970 ft 450 kts 225°
2026-05-04 18:11 11.72845 -82.59117 41966 ft 450 kts 225°
2026-05-04 18:11 11.68441 -82.63663 41960 ft 450 kts 225°
2026-05-04 18:12 11.64040 -82.68203 41968 ft 450 kts 225°
2026-05-04 18:12 11.59638 -82.72744 41951 ft 450 kts 225°
2026-05-04 18:13 11.55211 -82.77255 41961 ft 450 kts 224°
2026-05-04 18:14 11.48549 -82.84026 41964 ft 451 kts 225°
2026-05-04 18:14 11.44103 -82.88548 41959 ft 451 kts 225°
2026-05-04 18:15 11.35211 -82.97589 41958 ft 451 kts 225°
2026-05-04 18:16 11.30767 -83.02104 41959 ft 451 kts 225°
2026-05-04 18:16 11.26321 -83.06620 41962 ft 451 kts 225°
2026-05-04 18:17 11.19647 -83.13394 41963 ft 452 kts 224°
2026-05-04 18:18 11.12965 -83.20172 41956 ft 452 kts 225°
2026-05-04 18:18 11.08508 -83.24690 41962 ft 452 kts 225°
2026-05-04 18:19 11.01821 -83.31466 41955 ft 452 kts 225°
2026-05-04 18:19 10.99590 -83.33725 41809 ft 455 kts 225°
2026-05-04 18:19 10.97316 -83.36027 41565 ft 466 kts 225°
2026-05-04 18:20 10.95009 -83.38363 41172 ft 467 kts 224°
2026-05-04 18:20 10.92697 -83.40703 40330 ft 471 kts 224°
2026-05-04 18:20 10.90361 -83.43066 39415 ft 476 kts 224°
2026-05-04 18:20 10.88004 -83.45450 38586 ft 481 kts 224°
2026-05-04 18:21 10.85626 -83.47854 37807 ft 481 kts 224°
2026-05-04 18:21 10.83256 -83.50251 37120 ft 480 kts 224°
2026-05-04 18:21 10.80923 -83.52609 36474 ft 478 kts 224°
2026-05-04 18:21 10.78568 -83.54990 35781 ft 477 kts 224°
2026-05-04 18:22 10.76244 -83.57385 35248 ft 474 kts 226°
2026-05-04 18:22 10.74275 -83.60053 34731 ft 472 kts 237°
2026-05-04 18:22 10.72584 -83.62902 34182 ft 469 kts 238°
2026-05-04 18:22 10.70945 -83.65754 33611 ft 466 kts 239°
2026-05-04 18:23 10.69321 -83.68582 33084 ft 461 kts 239°
2026-05-04 18:23 10.67708 -83.71384 32555 ft 457 kts 239°
2026-05-04 18:23 10.66104 -83.74162 32056 ft 452 kts 239°
2026-05-04 18:23 10.64500 -83.76937 31534 ft 448 kts 239°
2026-05-04 18:24 10.62925 -83.79657 31046 ft 444 kts 239°
2026-05-04 18:24 10.61387 -83.82314 30552 ft 440 kts 239°
2026-05-04 18:24 10.59821 -83.85017 30053 ft 436 kts 240°
2026-05-04 18:24 10.58288 -83.87662 29495 ft 432 kts 240°
2026-05-04 18:25 10.56771 -83.90281 29020 ft 427 kts 240°
2026-05-04 18:25 10.55270 -83.92871 28530 ft 422 kts 239°
2026-05-04 18:25 10.53807 -83.95392 28068 ft 417 kts 239°
2026-05-04 18:25 10.52342 -83.97917 27591 ft 412 kts 240°
2026-05-04 18:26 10.50875 -84.00446 27112 ft 408 kts 240°
2026-05-04 18:26 10.49438 -84.02922 26656 ft 405 kts 240°
2026-05-04 18:26 10.48016 -84.05372 26183 ft 401 kts 240°
2026-05-04 18:26 10.46605 -84.07801 25724 ft 398 kts 240°
2026-05-04 18:27 10.45204 -84.10215 25252 ft 395 kts 240°
2026-05-04 18:27 10.43816 -84.12603 24790 ft 392 kts 240°
2026-05-04 18:27 10.42433 -84.14983 24319 ft 389 kts 240°
2026-05-04 18:27 10.41060 -84.17346 23850 ft 387 kts 240°
2026-05-04 18:28 10.39692 -84.19699 23353 ft 385 kts 240°
2026-05-04 18:28 10.38336 -84.22032 22842 ft 382 kts 240°
2026-05-04 18:28 10.36994 -84.24341 22395 ft 378 kts 240°
2026-05-04 18:28 10.35664 -84.26629 21926 ft 375 kts 240°
2026-05-04 18:29 10.34342 -84.28901 21450 ft 372 kts 240°
2026-05-04 18:29 10.33029 -84.31158 21013 ft 369 kts 240°
2026-05-04 18:29 10.31728 -84.33395 20544 ft 368 kts 240°
2026-05-04 18:29 10.30445 -84.35598 20095 ft 367 kts 240°
2026-05-04 18:30 10.27857 -84.40044 19166 ft 365 kts 240°
2026-05-04 18:30 10.26551 -84.42286 18709 ft 364 kts 240°
2026-05-04 18:30 10.25262 -84.44498 18240 ft 364 kts 240°
2026-05-04 18:31 10.23997 -84.46671 17757 ft 362 kts 239°
2026-05-04 18:31 10.22718 -84.48865 17272 ft 360 kts 239°
2026-05-04 18:31 10.21448 -84.51045 16826 ft 358 kts 239°
2026-05-04 18:31 10.20185 -84.53211 16360 ft 356 kts 239°
2026-05-04 18:32 10.18913 -84.55392 15893 ft 353 kts 239°
2026-05-04 18:32 10.17693 -84.57486 15664 ft 343 kts 239°
2026-05-04 18:32 10.16356 -84.59467 15529 ft 328 kts 227°
2026-05-04 18:32 10.14572 -84.60795 15409 ft 314 kts 203°
2026-05-04 18:33 10.12515 -84.61264 15149 ft 306 kts 179°
2026-05-04 18:33 10.10444 -84.60855 14752 ft 305 kts 155°
2026-05-04 18:33 10.08689 -84.59629 14371 ft 303 kts 134°
2026-05-04 18:33 10.07178 -84.58189 14022 ft 302 kts 142°
2026-05-04 18:34 10.05452 -84.56989 13669 ft 300 kts 147°
2026-05-04 18:34 10.03842 -84.55667 13292 ft 297 kts 132°
2026-05-04 18:34 10.02538 -84.54060 12973 ft 294 kts 127°
2026-05-04 18:34 10.01314 -84.52415 12642 ft 290 kts 127°
2026-05-04 18:35 10.00103 -84.50782 12331 ft 288 kts 127°
2026-05-04 18:35 9.98903 -84.49170 12010 ft 286 kts 127°
2026-05-04 18:35 9.97706 -84.47566 11680 ft 284 kts 127°
2026-05-04 18:35 9.96516 -84.45977 11360 ft 282 kts 127°
2026-05-04 18:36 9.95337 -84.44406 11041 ft 279 kts 127°
2026-05-04 18:36 9.94542 -84.43347 10831 ft 278 kts 127°
2026-05-04 18:36 9.92977 -84.41270 10393 ft 276 kts 126°
2026-05-04 18:36 9.91843 -84.39760 10185 ft 268 kts 126°
2026-05-04 18:37 9.90738 -84.38289 10059 ft 257 kts 126°
2026-05-04 18:37 9.89667 -84.36860 9924 ft 253 kts 126°
2026-05-04 18:37 9.88593 -84.35427 9626 ft 259 kts 126°
2026-05-04 18:37 9.87633 -84.33883 9332 ft 260 kts 112°
2026-05-04 18:38 9.87337 -84.32096 9092 ft 257 kts 84°
2026-05-04 18:38 9.87768 -84.30384 8959 ft 245 kts 71°
2026-05-04 18:38 9.88161 -84.29329 8860 ft 238 kts 69°
2026-05-04 18:38 9.88760 -84.27778 8644 ft 235 kts 69°
2026-05-04 18:39 9.89362 -84.26214 8411 ft 235 kts 70°
2026-05-04 18:39 9.89941 -84.24688 8164 ft 234 kts 70°
2026-05-04 18:39 9.90520 -84.23154 7908 ft 232 kts 69°
2026-05-04 18:39 9.91094 -84.21615 7691 ft 235 kts 70°
2026-05-04 18:40 9.91667 -84.20046 7475 ft 233 kts 70°
2026-05-04 18:40 9.92223 -84.18519 7276 ft 229 kts 69°
2026-05-04 18:40 9.92772 -84.17015 7080 ft 227 kts 69°
2026-05-04 18:40 9.93326 -84.15511 6781 ft 229 kts 69°
2026-05-04 18:41 9.93877 -84.14005 6462 ft 225 kts 69°
2026-05-04 18:41 9.94406 -84.12598 6317 ft 205 kts 65°
2026-05-04 18:41 9.95111 -84.11414 6243 ft 186 kts 50°
2026-05-04 18:41 9.96067 -84.10583 6020 ft 179 kts 31°
2026-05-04 18:42 9.97196 -84.10135 5820 ft 175 kts 13°
2026-05-04 18:42 9.98420 -84.10085 5586 ft 174 kts 353°
2026-05-04 18:42 9.99555 -84.10424 5515 ft 173 kts 336°
2026-05-04 18:42 10.00554 -84.11091 5341 ft 166 kts 320°
2026-05-04 18:43 10.01212 -84.12014 5068 ft 164 kts 297°
2026-05-04 18:43 10.01521 -84.13120 4744 ft 160 kts 282°
2026-05-04 18:43 10.01546 -84.14216 4440 ft 153 kts 270°
2026-05-04 18:43 10.01417 -84.15302 4205 ft 155 kts 261°
2026-05-04 18:44 10.01080 -84.16352 3856 ft 154 kts 249°
2026-05-04 18:44 10.00811 -84.17013 3739 ft 153 kts 250°
2026-05-04 18:44 10.00337 -84.18350 3478 ft 146 kts 248°
2026-05-04 18:44 9.99985 -84.19282 3274 ft 139 kts 249°
2026-05-04 18:45 9.99646 -84.20193 3091 ft 136 kts 249°
2026-05-04 18:45 9.99340 -84.21024 3019 ft 113 kts 249°
2026-05-04 18:45 9.99096 -84.21674 2982 ft 82 kts 250°
2026-05-04 18:45 9.98977 -84.21988 2951 ft 17 kts 249°
2026-05-04 18:46 9.98933 -84.22105 2951 ft 10 kts 249°
2026-05-04 18:46 9.98956 -84.22175 2947 ft 12 kts 327°
2026-05-04 18:46 9.99044 -84.22182 2945 ft 13 kts 31°
2026-05-04 18:46 9.99086 -84.22104 2945 ft 12 kts 65°
2026-05-04 18:47 9.99094 -84.22021 2952 ft 13 kts 94°
2026-05-04 18:47 9.99099 -84.21924 2966 ft 14 kts 76°
2026-05-04 18:47 9.99131 -84.21828 2970 ft 14 kts 68°
2026-05-04 18:47 9.99152 -84.21773 2973 ft 1 kts 68°
2026-05-04 18:49 9.99156 -84.21764 2974 ft 6 kts 68°
2026-05-04 18:49 9.99181 -84.21699 2976 ft 11 kts 69°
2026-05-04 18:49 9.99219 -84.21599 2982 ft 17 kts 69°
2026-05-04 18:50 9.99260 -84.21492 2990 ft 15 kts 69°
2026-05-04 18:50 9.99295 -84.21397 2997 ft 13 kts 69°
2026-05-04 18:50 9.99326 -84.21316 3003 ft 11 kts 69°
2026-05-04 18:50 9.99354 -84.21243 3008 ft 12 kts 69°
2026-05-04 18:51 9.99412 -84.21190 3011 ft 12 kts
2026-05-04 18:51 9.99477 -84.21230 3010 ft 11 kts 285°
2026-05-04 18:51 9.99484 -84.21286 3007 ft 3 kts 317°
2026-05-04 18:51 9.99516 -84.21300 3006 ft 7 kts 339°
2026-05-04 18:52 9.99539 -84.21309 3006 ft 4 kts 339°
2026-05-04 18:52 9.99545 -84.21311 3006 ft 0 kts 339°